Wetterdaten: Freitag, 16.01.2026
Datum Zeit Temp. Aussen Temp. o. S. Temp +5cm Feuchte Auss Luftdruck Regen Sonnenschein Regendauer Solar Windböen Empfang
16.01.2026 00:00 9,2 °C 8,3 °C 5,0 °C 89 % 1007,6 hPa 0,0 l/m² 0 min 0 min 0 W/m² 22,5 km/h (4 Bft) 95,65 %
16.01.2026 00:02 9,2 °C 8,3 °C 5,0 °C 89 % 1007,6 hPa 0,0 l/m² 0 min 0 min 0 W/m² 25,7 km/h (4 Bft) 88,10 %
16.01.2026 00:04 9,2 °C 8,3 °C 5,0 °C 89 % 1007,5 hPa 0,0 l/m² 0 min 0 min 0 W/m² 19,3 km/h (3 Bft) 97,50 %
16.01.2026 00:07 9,2 °C 8,3 °C 5,0 °C 89 % 1007,5 hPa 0,0 l/m² 0 min 0 min 0 W/m² 22,5 km/h (4 Bft) 97,50 %
16.01.2026 00:08 9,2 °C 8,3 °C 5,0 °C 89 % 1007,5 hPa 0,0 l/m² 0 min 0 min 0 W/m² 29,0 km/h (5 Bft) 95,28 %
16.01.2026 00:12 9,2 °C 8,3 °C 5,0 °C 89 % 1007,4 hPa 0,0 l/m² 0 min 0 min 0 W/m² 16,1 km/h (3 Bft) 91,67 %
16.01.2026 00:14 9,2 °C 8,3 °C 5,0 °C 89 % 1007,4 hPa 0,0 l/m² 0 min 0 min 0 W/m² 41,8 km/h (6 Bft) 92,31 %
16.01.2026 00:16 9,2 °C 8,3 °C 5,0 °C 89 % 1007,4 hPa 0,0 l/m² 0 min 0 min 0 W/m² 16,1 km/h (3 Bft) 89,58 %
16.01.2026 00:18 9,2 °C 8,3 °C 5,0 °C 89 % 1007,3 hPa 0,0 l/m² 0 min 0 min 0 W/m² 25,7 km/h (4 Bft) 97,78 %
16.01.2026 00:20 9,2 °C 8,3 °C 5,0 °C 90 % 1007,3 hPa 0,0 l/m² 0 min 0 min 0 W/m² 25,7 km/h (4 Bft) 95,65 %
16.01.2026 00:22 9,2 °C 8,3 °C 5,0 °C 90 % 1007,3 hPa 0,0 l/m² 0 min 0 min 0 W/m² 22,5 km/h (4 Bft) 95,00 %
16.01.2026 00:24 9,2 °C 8,3 °C 5,0 °C 90 % 1007,2 hPa 0,0 l/m² 0 min 0 min 0 W/m² 25,7 km/h (4 Bft) 93,48 %
16.01.2026 00:26 9,2 °C 8,3 °C 5,0 °C 90 % 1007,2 hPa 0,0 l/m² 0 min 0 min 0 W/m² 25,7 km/h (4 Bft) 93,62 %
16.01.2026 00:28 9,2 °C 8,3 °C 5,0 °C 90 % 1007,1 hPa 0,0 l/m² 0 min 0 min 0 W/m² 19,3 km/h (3 Bft) 92,73 %
16.01.2026 00:30 9,2 °C 8,9 °C 5,0 °C 89 % 1007,2 hPa 0,0 l/m² 0 min 0 min 0 W/m² 22,5 km/h (4 Bft) 94,87 %
16.01.2026 00:32 9,2 °C 8,9 °C 5,0 °C 89 % 1007,2 hPa 0,0 l/m² 0 min 0 min 0 W/m² 19,3 km/h (3 Bft) 92,45 %
16.01.2026 00:34 9,3 °C 8,9 °C 5,0 °C 89 % 1007,1 hPa 0,0 l/m² 0 min 0 min 0 W/m² 29,0 km/h (5 Bft) 95,12 %
16.01.2026 00:36 9,3 °C 8,9 °C 5,0 °C 89 % 1007,2 hPa 0,0 l/m² 0 min 0 min 0 W/m² 22,5 km/h (4 Bft) 88,68 %
16.01.2026 00:38 9,3 °C 8,9 °C 5,0 °C 89 % 1007,1 hPa 0,0 l/m² 0 min 0 min 0 W/m² 22,5 km/h (4 Bft) 95,74 %
16.01.2026 00:40 9,3 °C 8,9 °C 5,0 °C 89 % 1007,0 hPa 0,0 l/m² 0 min 0 min 0 W/m² 25,7 km/h (4 Bft) 95,74 %
16.01.2026 00:42 9,3 °C 8,9 °C 5,0 °C 89 % 1007,1 hPa 0,0 l/m² 0 min 0 min 0 W/m² 19,3 km/h (3 Bft) 91,67 %
16.01.2026 00:44 9,3 °C 8,9 °C 5,0 °C 89 % 1007,0 hPa 0,0 l/m² 0 min 0 min 0 W/m² 19,3 km/h (3 Bft) 96,00 %
16.01.2026 00:46 9,3 °C 8,9 °C 5,0 °C 89 % 1007,1 hPa 0,0 l/m² 0 min 0 min 0 W/m² 25,7 km/h (4 Bft) 91,30 %
16.01.2026 00:48 9,4 °C 8,9 °C 5,0 °C 89 % 1007,1 hPa 0,0 l/m² 0 min 0 min 0 W/m² 19,3 km/h (3 Bft) 95,56 %
16.01.2026 00:50 9,4 °C 8,9 °C 5,0 °C 89 % 1007,0 hPa 0,0 l/m² 0 min 0 min 0 W/m² 22,5 km/h (4 Bft) 97,83 %
16.01.2026 00:52 9,4 °C 8,9 °C 5,0 °C 89 % 1006,9 hPa 0,0 l/m² 0 min 0 min 0 W/m² 19,3 km/h (3 Bft) 97,83 %
16.01.2026 00:54 9,4 °C 8,9 °C 5,0 °C 89 % 1006,9 hPa 0,0 l/m² 0 min 0 min 0 W/m² 25,7 km/h (4 Bft) 97,50 %
16.01.2026 00:56 9,4 °C 8,9 °C 5,0 °C 89 % 1007,0 hPa 0,0 l/m² 0 min 0 min 0 W/m² 25,7 km/h (4 Bft) 95,74 %
16.01.2026 00:58 9,4 °C 8,9 °C 5,0 °C 89 % 1007,0 hPa 0,0 l/m² 0 min 0 min 0 W/m² 29,0 km/h (5 Bft) 95,74 %
16.01.2026 01:00 9,4 °C 8,9 °C 5,0 °C 89 % 1007,0 hPa 0,0 l/m² 0 min 0 min 0 W/m² 29,0 km/h (5 Bft) 93,48 %
16.01.2026 01:02 9,4 °C 8,9 °C 5,0 °C 89 % 1007,0 hPa 0,0 l/m² 0 min 0 min 0 W/m² 22,5 km/h (4 Bft) 98,18 %
16.01.2026 01:04 9,4 °C 8,9 °C 5,0 °C 89 % 1007,0 hPa 0,0 l/m² 0 min 0 min 0 W/m² 19,3 km/h (3 Bft) 95,65 %
16.01.2026 01:06 9,4 °C 8,9 °C 5,0 °C 89 % 1007,0 hPa 0,0 l/m² 0 min 0 min 0 W/m² 19,3 km/h (3 Bft) 98,08 %
16.01.2026 01:08 9,4 °C 8,9 °C 5,0 °C 88 % 1007,1 hPa 0,0 l/m² 0 min 0 min 0 W/m² 19,3 km/h (3 Bft) 97,14 %
16.01.2026 01:10 9,4 °C 8,9 °C 5,0 °C 88 % 1007,2 hPa 0,0 l/m² 0 min 0 min 0 W/m² 22,5 km/h (4 Bft) 97,87 %
16.01.2026 01:12 9,4 °C 8,9 °C 5,0 °C 88 % 1007,2 hPa 0,0 l/m² 0 min 0 min 0 W/m² 19,3 km/h (3 Bft) 100,00 %
16.01.2026 01:14 9,4 °C 8,9 °C 5,0 °C 88 % 1007,2 hPa 0,0 l/m² 0 min 0 min 0 W/m² 22,5 km/h (4 Bft) 97,87 %
16.01.2026 01:16 9,4 °C 8,9 °C 5,0 °C 88 % 1007,2 hPa 0,0 l/m² 0 min 0 min 0 W/m² 19,3 km/h (3 Bft) 100,00 %
16.01.2026 01:18 9,4 °C 8,9 °C 5,0 °C 88 % 1007,2 hPa 0,0 l/m² 0 min 0 min 0 W/m² 16,1 km/h (3 Bft) 100,00 %
16.01.2026 01:20 9,4 °C 8,9 °C 5,0 °C 88 % 1007,2 hPa 0,0 l/m² 0 min 0 min 0 W/m² 16,1 km/h (3 Bft) 100,00 %
16.01.2026 01:22 9,4 °C 8,9 °C 5,0 °C 88 % 1007,2 hPa 0,0 l/m² 0 min 0 min 0 W/m² 22,5 km/h (4 Bft) 100,00 %
16.01.2026 01:24 9,4 °C 8,9 °C 5,0 °C 88 % 1007,2 hPa 0,0 l/m² 0 min 0 min 0 W/m² 19,3 km/h (3 Bft) 100,00 %
16.01.2026 01:26 9,4 °C 8,9 °C 5,0 °C 88 % 1007,2 hPa 0,0 l/m² 0 min 0 min 0 W/m² 16,1 km/h (3 Bft) 100,00 %
16.01.2026 01:28 9,4 °C 8,9 °C 5,0 °C 88 % 1007,2 hPa 0,0 l/m² 0 min 0 min 0 W/m² 25,7 km/h (4 Bft) 98,31 %
16.01.2026 01:30 9,4 °C 8,9 °C 5,0 °C 88 % 1007,2 hPa 0,0 l/m² 0 min 0 min 0 W/m² 19,3 km/h (3 Bft) 100,00 %
16.01.2026 01:32 9,4 °C 8,9 °C 5,0 °C 88 % 1007,3 hPa 0,0 l/m² 0 min 0 min 0 W/m² 12,9 km/h (3 Bft) 100,00 %
16.01.2026 01:34 9,4 °C 8,9 °C 5,0 °C 88 % 1007,2 hPa 0,0 l/m² 0 min 0 min 0 W/m² 16,1 km/h (3 Bft) 97,83 %
16.01.2026 01:36 9,4 °C 8,9 °C 5,0 °C 88 % 1007,2 hPa 0,0 l/m² 0 min 0 min 0 W/m² 19,3 km/h (3 Bft) 100,00 %
16.01.2026 01:38 9,5 °C 8,9 °C 5,0 °C 88 % 1007,3 hPa 0,0 l/m² 0 min 0 min 0 W/m² 25,7 km/h (4 Bft) 100,00 %
16.01.2026 01:40 9,5 °C 8,9 °C 5,0 °C 88 % 1007,1 hPa 0,0 l/m² 0 min 0 min 0 W/m² 16,1 km/h (3 Bft) 97,87 %
16.01.2026 01:42 9,5 °C 8,9 °C 5,0 °C 88 % 1007,1 hPa 0,0 l/m² 0 min 0 min 0 W/m² 25,7 km/h (4 Bft) 100,00 %
16.01.2026 01:44 9,6 °C 8,9 °C 5,6 °C 88 % 1007,2 hPa 0,0 l/m² 0 min 0 min 0 W/m² 25,7 km/h (4 Bft) 57,45 %
16.01.2026 01:46 9,6 °C 8,9 °C 5,6 °C 88 % 1007,1 hPa 0,0 l/m² 0 min 0 min 0 W/m² 29,0 km/h (5 Bft) 100,00 %
16.01.2026 01:48 9,6 °C 8,9 °C 5,6 °C 88 % 1007,1 hPa 0,0 l/m² 0 min 0 min 0 W/m² 19,3 km/h (3 Bft) 97,78 %
16.01.2026 01:50 9,6 °C 8,9 °C 5,6 °C 88 % 1007,1 hPa 0,0 l/m² 0 min 0 min 0 W/m² 22,5 km/h (4 Bft) 100,00 %
16.01.2026 01:52 9,6 °C 8,9 °C 5,6 °C 88 % 1007,2 hPa 0,0 l/m² 0 min 0 min 0 W/m² 16,1 km/h (3 Bft) 100,00 %
16.01.2026 01:54 9,6 °C 8,9 °C 5,6 °C 88 % 1007,2 hPa 0,0 l/m² 0 min 0 min 0 W/m² 22,5 km/h (4 Bft) 96,61 %
16.01.2026 01:56 9,7 °C 9,4 °C 5,6 °C 88 % 1007,2 hPa 0,0 l/m² 0 min 0 min 0 W/m² 22,5 km/h (4 Bft) 97,78 %
16.01.2026 01:58 9,6 °C 9,4 °C 5,6 °C 88 % 1007,1 hPa 0,0 l/m² 0 min 0 min 0 W/m² 22,5 km/h (4 Bft) 97,92 %
16.01.2026 02:00 9,7 °C 9,4 °C 5,6 °C 87 % 1007,2 hPa 0,0 l/m² 0 min 0 min 0 W/m² 16,1 km/h (3 Bft) 100,00 %
16.01.2026 02:02 9,7 °C 9,4 °C 5,6 °C 87 % 1007,2 hPa 0,0 l/m² 0 min 0 min 0 W/m² 19,3 km/h (3 Bft) 100,00 %
16.01.2026 02:04 9,7 °C 9,4 °C 5,6 °C 87 % 1007,2 hPa 0,0 l/m² 0 min 0 min 0 W/m² 22,5 km/h (4 Bft) 98,31 %
16.01.2026 02:06 9,7 °C 9,4 °C 5,6 °C 87 % 1007,2 hPa 0,0 l/m² 0 min 0 min 0 W/m² 19,3 km/h (3 Bft) 97,73 %
16.01.2026 02:08 9,7 °C 9,4 °C 5,6 °C 87 % 1007,4 hPa 0,0 l/m² 0 min 0 min 0 W/m² 16,1 km/h (3 Bft) 100,00 %
16.01.2026 02:10 9,7 °C 9,4 °C 5,6 °C 87 % 1007,4 hPa 0,0 l/m² 0 min 0 min 0 W/m² 19,3 km/h (3 Bft) 100,00 %
16.01.2026 02:12 9,8 °C 9,4 °C 5,6 °C 87 % 1007,4 hPa 0,0 l/m² 0 min 0 min 0 W/m² 16,1 km/h (3 Bft) 97,87 %
16.01.2026 02:14 9,8 °C 9,4 °C 5,6 °C 87 % 1007,4 hPa 0,0 l/m² 0 min 0 min 0 W/m² 22,5 km/h (4 Bft) 97,87 %
16.01.2026 02:16 9,8 °C 9,4 °C 5,6 °C 87 % 1007,4 hPa 0,0 l/m² 0 min 0 min 0 W/m² 16,1 km/h (3 Bft) 93,62 %
16.01.2026 02:18 9,8 °C 9,4 °C 5,6 °C 87 % 1007,4 hPa 0,0 l/m² 0 min 0 min 0 W/m² 19,3 km/h (3 Bft) 98,25 %
16.01.2026 02:20 9,8 °C 9,4 °C 5,6 °C 87 % 1007,3 hPa 0,0 l/m² 0 min 0 min 0 W/m² 19,3 km/h (3 Bft) 97,78 %
16.01.2026 02:22 9,8 °C 9,4 °C 5,6 °C 87 % 1007,3 hPa 0,0 l/m² 0 min 0 min 0 W/m² 19,3 km/h (3 Bft) 94,74 %
16.01.2026 02:24 9,8 °C 9,4 °C 5,6 °C 87 % 1007,3 hPa 0,0 l/m² 0 min 0 min 0 W/m² 22,5 km/h (4 Bft) 98,15 %
16.01.2026 02:26 9,8 °C 9,4 °C 5,6 °C 87 % 1007,3 hPa 0,0 l/m² 0 min 0 min 0 W/m² 35,4 km/h (5 Bft) 97,87 %
16.01.2026 02:28 9,8 °C 9,4 °C 5,6 °C 87 % 1007,3 hPa 0,0 l/m² 0 min 0 min 0 W/m² 16,1 km/h (3 Bft) 97,87 %
16.01.2026 02:30 9,8 °C 9,4 °C 5,6 °C 86 % 1007,5 hPa 0,0 l/m² 0 min 0 min 0 W/m² 16,1 km/h (3 Bft) 97,96 %
16.01.2026 02:32 9,8 °C 9,4 °C 5,6 °C 86 % 1007,4 hPa 0,0 l/m² 0 min 0 min 0 W/m² 22,5 km/h (4 Bft) 97,37 %
16.01.2026 02:34 9,8 °C 9,4 °C 5,6 °C 86 % 1007,5 hPa 0,0 l/m² 0 min 0 min 0 W/m² 19,3 km/h (3 Bft) 97,83 %
16.01.2026 02:36 9,8 °C 9,4 °C 5,6 °C 86 % 1007,5 hPa 0,0 l/m² 0 min 0 min 0 W/m² 12,9 km/h (3 Bft) 98,15 %
16.01.2026 02:38 9,8 °C 9,4 °C 5,6 °C 86 % 1007,5 hPa 0,0 l/m² 0 min 0 min 0 W/m² 19,3 km/h (3 Bft) 97,96 %
16.01.2026 02:40 9,9 °C 9,4 °C 5,6 °C 86 % 1007,5 hPa 0,0 l/m² 0 min 0 min 0 W/m² 22,5 km/h (4 Bft) 95,83 %
16.01.2026 02:42 9,9 °C 9,4 °C 5,6 °C 86 % 1007,6 hPa 0,0 l/m² 0 min 0 min 0 W/m² 19,3 km/h (3 Bft) 93,02 %
16.01.2026 02:44 9,9 °C 9,4 °C 5,6 °C 86 % 1007,6 hPa 0,0 l/m² 0 min 0 min 0 W/m² 25,7 km/h (4 Bft) 93,88 %
16.01.2026 02:46 10,0 °C 9,4 °C 5,6 °C 86 % 1007,5 hPa 0,0 l/m² 0 min 0 min 0 W/m² 16,1 km/h (3 Bft) 92,11 %
16.01.2026 02:48 10,1 °C 9,4 °C 5,6 °C 86 % 1007,5 hPa 0,0 l/m² 0 min 0 min 0 W/m² 12,9 km/h (3 Bft) 97,87 %
16.01.2026 02:50 10,1 °C 9,4 °C 5,6 °C 85 % 1007,5 hPa 0,0 l/m² 0 min 0 min 0 W/m² 25,7 km/h (4 Bft) 95,74 %
16.01.2026 02:52 10,1 °C 9,4 °C 5,6 °C 85 % 1007,5 hPa 0,0 l/m² 0 min 0 min 0 W/m² 22,5 km/h (4 Bft) 93,62 %
16.01.2026 02:54 10,1 °C 9,4 °C 5,6 °C 85 % 1007,5 hPa 0,0 l/m² 0 min 0 min 0 W/m² 16,1 km/h (3 Bft) 97,87 %
16.01.2026 02:56 10,1 °C 9,4 °C 5,6 °C 85 % 1007,5 hPa 0,0 l/m² 0 min 0 min 0 W/m² 22,5 km/h (4 Bft) 96,30 %
16.01.2026 02:58 10,1 °C 9,4 °C 5,6 °C 85 % 1007,6 hPa 0,0 l/m² 0 min 0 min 0 W/m² 19,3 km/h (3 Bft) 97,92 %
16.01.2026 03:00 10,2 °C 9,4 °C 5,6 °C 85 % 1007,6 hPa 0,0 l/m² 0 min 0 min 0 W/m² 12,9 km/h (3 Bft) 96,00 %
16.01.2026 03:02 10,2 °C 9,4 °C 5,6 °C 85 % 1007,6 hPa 0,0 l/m² 0 min 0 min 0 W/m² 19,3 km/h (3 Bft) 94,29 %
16.01.2026 03:04 10,2 °C 9,4 °C 5,6 °C 85 % 1007,6 hPa 0,0 l/m² 0 min 0 min 0 W/m² 22,5 km/h (4 Bft) 97,92 %
16.01.2026 03:08 10,2 °C 9,4 °C 5,6 °C 84 % 1007,7 hPa 0,0 l/m² 0 min 0 min 0 W/m² 22,5 km/h (4 Bft) 97,50 %
16.01.2026 03:09 10,2 °C 9,4 °C 5,6 °C 84 % 1007,7 hPa 0,0 l/m² 0 min 0 min 0 W/m² 12,9 km/h (3 Bft) 96,47 %
16.01.2026 03:10 10,2 °C 9,4 °C 5,6 °C 84 % 1007,7 hPa 0,0 l/m² 0 min 0 min 0 W/m² 22,5 km/h (4 Bft) 99,12 %
16.01.2026 03:14 10,3 °C 9,4 °C 5,6 °C 84 % 1007,7 hPa 0,0 l/m² 0 min 0 min 0 W/m² 16,1 km/h (3 Bft) 93,62 %
16.01.2026 03:16 10,3 °C 9,4 °C 5,6 °C 84 % 1007,8 hPa 0,0 l/m² 0 min 0 min 0 W/m² 16,1 km/h (3 Bft) 96,23 %
16.01.2026 03:18 10,3 °C 9,4 °C 5,6 °C 84 % 1007,8 hPa 0,0 l/m² 0 min 0 min 0 W/m² 19,3 km/h (3 Bft) 95,83 %
16.01.2026 03:20 10,3 °C 9,4 °C 5,6 °C 84 % 1007,8 hPa 0,0 l/m² 0 min 0 min 0 W/m² 16,1 km/h (3 Bft) 95,83 %
16.01.2026 03:22 10,3 °C 9,4 °C 5,6 °C 84 % 1007,8 hPa 0,0 l/m² 0 min 0 min 0 W/m² 9,7 km/h (2 Bft) 95,65 %
16.01.2026 03:24 10,3 °C 9,4 °C 5,6 °C 84 % 1007,9 hPa 0,0 l/m² 0 min 0 min 0 W/m² 16,1 km/h (3 Bft) 93,48 %
16.01.2026 03:26 10,3 °C 9,4 °C 5,6 °C 84 % 1007,9 hPa 0,0 l/m² 0 min 0 min 0 W/m² 19,3 km/h (3 Bft) 97,50 %
16.01.2026 03:28 10,3 °C 9,4 °C 5,6 °C 84 % 1007,9 hPa 0,0 l/m² 0 min 0 min 0 W/m² 16,1 km/h (3 Bft) 87,04 %
16.01.2026 03:30 10,3 °C 9,4 °C 5,6 °C 84 % 1008,0 hPa 0,0 l/m² 0 min 0 min 0 W/m² 19,3 km/h (3 Bft) 65,22 %
16.01.2026 03:32 10,3 °C 9,4 °C 5,6 °C 84 % 1008,0 hPa 0,0 l/m² 0 min 0 min 0 W/m² 6,4 km/h (2 Bft) 97,56 %
16.01.2026 03:34 10,3 °C 9,4 °C 5,6 °C 84 % 1008,0 hPa 0,0 l/m² 0 min 0 min 0 W/m² 12,9 km/h (3 Bft) 97,83 %
16.01.2026 03:36 10,3 °C 9,4 °C 5,6 °C 84 % 1008,0 hPa 0,0 l/m² 0 min 0 min 0 W/m² 16,1 km/h (3 Bft) 95,74 %
16.01.2026 03:38 10,3 °C 9,4 °C 5,6 °C 84 % 1008,0 hPa 0,0 l/m² 0 min 0 min 0 W/m² 22,5 km/h (4 Bft) 95,74 %
16.01.2026 03:40 10,3 °C 9,4 °C 5,6 °C 84 % 1008,1 hPa 0,0 l/m² 0 min 0 min 0 W/m² 16,1 km/h (3 Bft) 97,87 %
16.01.2026 03:42 10,3 °C 9,4 °C 5,6 °C 84 % 1008,1 hPa 0,0 l/m² 0 min 0 min 0 W/m² 19,3 km/h (3 Bft) 93,62 %
16.01.2026 03:44 10,3 °C 9,4 °C 5,6 °C 84 % 1008,1 hPa 0,0 l/m² 0 min 0 min 0 W/m² 12,9 km/h (3 Bft) 95,74 %
16.01.2026 03:46 10,3 °C 9,4 °C 5,6 °C 84 % 1008,0 hPa 0,0 l/m² 0 min 0 min 0 W/m² 9,7 km/h (2 Bft) 96,49 %
16.01.2026 03:48 10,3 °C 9,4 °C 5,6 °C 84 % 1008,0 hPa 0,0 l/m² 0 min 0 min 0 W/m² 16,1 km/h (3 Bft) 97,87 %
16.01.2026 03:50 10,3 °C 9,4 °C 5,6 °C 84 % 1008,1 hPa 0,0 l/m² 0 min 0 min 0 W/m² 16,1 km/h (3 Bft) 97,83 %
16.01.2026 03:52 10,3 °C 9,4 °C 5,6 °C 84 % 1008,0 hPa 0,0 l/m² 0 min 0 min 0 W/m² 19,3 km/h (3 Bft) 97,87 %
16.01.2026 03:54 10,3 °C 9,4 °C 5,6 °C 84 % 1008,0 hPa 0,0 l/m² 0 min 0 min 0 W/m² 16,1 km/h (3 Bft) 97,73 %
16.01.2026 03:56 10,3 °C 9,4 °C 5,6 °C 84 % 1008,0 hPa 0,0 l/m² 0 min 0 min 0 W/m² 16,1 km/h (3 Bft) 98,00 %
16.01.2026 03:58 10,3 °C 9,4 °C 5,6 °C 84 % 1008,1 hPa 0,0 l/m² 0 min 0 min 0 W/m² 9,7 km/h (2 Bft) 100,00 %
16.01.2026 04:02 10,3 °C 9,4 °C 5,6 °C 84 % 1008,1 hPa 0,0 l/m² 0 min 0 min 0 W/m² 12,9 km/h (3 Bft) 100,00 %
16.01.2026 04:04 10,3 °C 9,4 °C 5,6 °C 84 % 1008,1 hPa 0,0 l/m² 0 min 0 min 0 W/m² 12,9 km/h (3 Bft) 100,00 %
16.01.2026 04:05 10,3 °C 9,4 °C 5,6 °C 84 % 1008,1 hPa 0,0 l/m² 0 min 0 min 0 W/m² 9,7 km/h (2 Bft) 100,00 %
16.01.2026 04:10 10,3 °C 9,4 °C 5,6 °C 84 % 1008,1 hPa 0,0 l/m² 0 min 0 min 0 W/m² 19,3 km/h (3 Bft) 97,87 %
16.01.2026 04:12 10,3 °C 9,4 °C 5,6 °C 84 % 1008,2 hPa 0,0 l/m² 0 min 0 min 0 W/m² 12,9 km/h (3 Bft) 95,65 %
16.01.2026 04:16 10,3 °C 9,4 °C 5,6 °C 84 % 1008,2 hPa 0,0 l/m² 0 min 0 min 0 W/m² 25,7 km/h (4 Bft) 97,09 %
16.01.2026 04:18 10,3 °C 10,0 °C 5,6 °C 84 % 1008,2 hPa 0,0 l/m² 0 min 0 min 0 W/m² 16,1 km/h (3 Bft) 100,00 %
16.01.2026 04:22 10,3 °C 9,4 °C 5,6 °C 84 % 1008,3 hPa 0,0 l/m² 0 min 0 min 0 W/m² 9,7 km/h (2 Bft) 97,78 %
16.01.2026 04:26 10,3 °C 9,4 °C 5,6 °C 84 % 1008,2 hPa 0,0 l/m² 0 min 0 min 0 W/m² 22,5 km/h (4 Bft) 97,17 %
16.01.2026 04:28 10,3 °C 9,4 °C 5,6 °C 84 % 1008,2 hPa 0,0 l/m² 0 min 0 min 0 W/m² 16,1 km/h (3 Bft) 94,74 %
16.01.2026 04:32 10,3 °C 9,4 °C 5,6 °C 84 % 1008,2 hPa 0,0 l/m² 0 min 0 min 0 W/m² 22,5 km/h (4 Bft) 97,83 %
16.01.2026 04:34 10,3 °C 9,4 °C 5,6 °C 84 % 1008,2 hPa 0,0 l/m² 0 min 0 min 0 W/m² 6,4 km/h (2 Bft) 97,73 %
16.01.2026 04:35 10,3 °C 9,4 °C 5,6 °C 84 % 1008,2 hPa 0,0 l/m² 0 min 0 min 0 W/m² 12,9 km/h (3 Bft) 97,40 %
16.01.2026 04:40 10,3 °C 10,0 °C 5,6 °C 84 % 1008,2 hPa 0,0 l/m² 0 min 0 min 0 W/m² 22,5 km/h (4 Bft) 94,59 %
16.01.2026 04:42 10,3 °C 10,0 °C 5,6 °C 84 % 1008,3 hPa 0,0 l/m² 0 min 0 min 0 W/m² 19,3 km/h (3 Bft) 98,18 %
16.01.2026 04:44 10,3 °C 10,0 °C 5,6 °C 84 % 1008,3 hPa 0,0 l/m² 0 min 0 min 0 W/m² 16,1 km/h (3 Bft) 100,00 %
16.01.2026 04:46 10,4 °C 10,0 °C 5,6 °C 84 % 1008,4 hPa 0,0 l/m² 0 min 0 min 0 W/m² 25,7 km/h (4 Bft) 95,65 %
16.01.2026 04:48 10,4 °C 10,0 °C 5,6 °C 84 % 1008,4 hPa 0,0 l/m² 0 min 0 min 0 W/m² 12,9 km/h (3 Bft) 100,00 %
16.01.2026 04:52 10,4 °C 10,0 °C 5,6 °C 84 % 1008,5 hPa 0,0 l/m² 0 min 0 min 0 W/m² 22,5 km/h (4 Bft) 100,00 %
16.01.2026 04:54 10,4 °C 10,0 °C 5,6 °C 84 % 1008,6 hPa 0,0 l/m² 0 min 0 min 0 W/m² 22,5 km/h (4 Bft) 97,56 %
16.01.2026 04:56 10,4 °C 10,0 °C 5,6 °C 84 % 1008,5 hPa 0,0 l/m² 0 min 0 min 0 W/m² 12,9 km/h (3 Bft) 100,00 %
16.01.2026 04:58 10,4 °C 9,4 °C 5,6 °C 84 % 1008,6 hPa 0,0 l/m² 0 min 0 min 0 W/m² 9,7 km/h (2 Bft) 100,00 %
16.01.2026 05:00 10,4 °C 9,4 °C 5,6 °C 84 % 1008,6 hPa 0,0 l/m² 0 min 0 min 0 W/m² 12,9 km/h (3 Bft) 97,78 %
16.01.2026 05:02 10,4 °C 9,4 °C 5,6 °C 84 % 1008,6 hPa 0,0 l/m² 0 min 0 min 0 W/m² 19,3 km/h (3 Bft) 100,00 %
16.01.2026 05:04 10,4 °C 10,0 °C 5,6 °C 84 % 1008,6 hPa 0,0 l/m² 0 min 0 min 0 W/m² 19,3 km/h (3 Bft) 100,00 %
16.01.2026 05:08 10,4 °C 10,0 °C 5,6 °C 84 % 1008,7 hPa 0,0 l/m² 0 min 0 min 0 W/m² 12,9 km/h (3 Bft) 100,00 %
16.01.2026 05:10 10,4 °C 10,0 °C 5,6 °C 84 % 1008,8 hPa 0,0 l/m² 0 min 0 min 0 W/m² 22,5 km/h (4 Bft) 100,00 %
16.01.2026 05:12 10,4 °C 10,0 °C 5,6 °C 84 % 1008,8 hPa 0,0 l/m² 0 min 0 min 0 W/m² 16,1 km/h (3 Bft) 100,00 %
16.01.2026 05:14 10,4 °C 10,0 °C 6,1 °C 84 % 1008,8 hPa 0,0 l/m² 0 min 0 min 0 W/m² 22,5 km/h (4 Bft) 100,00 %
16.01.2026 05:16 10,5 °C 10,0 °C 6,1 °C 84 % 1008,8 hPa 0,0 l/m² 0 min 0 min 0 W/m² 22,5 km/h (4 Bft) 100,00 %
16.01.2026 05:20 10,6 °C 10,0 °C 6,1 °C 83 % 1008,9 hPa 0,0 l/m² 0 min 0 min 0 W/m² 32,2 km/h (5 Bft) 96,77 %
16.01.2026 05:24 10,7 °C 10,0 °C 6,1 °C 83 % 1008,9 hPa 0,0 l/m² 0 min 0 min 0 W/m² 25,7 km/h (4 Bft) 98,94 %
16.01.2026 05:26 10,7 °C 10,0 °C 6,1 °C 83 % 1009,0 hPa 0,0 l/m² 0 min 0 min 0 W/m² 19,3 km/h (3 Bft) 97,67 %
16.01.2026 05:28 10,7 °C 10,0 °C 6,1 °C 83 % 1008,9 hPa 0,0 l/m² 0 min 0 min 0 W/m² 25,7 km/h (4 Bft) 97,78 %
16.01.2026 05:30 10,7 °C 10,0 °C 6,1 °C 83 % 1009,0 hPa 0,0 l/m² 0 min 0 min 0 W/m² 22,5 km/h (4 Bft) 98,11 %
16.01.2026 05:32 10,8 °C 10,0 °C 6,1 °C 83 % 1009,0 hPa 0,0 l/m² 0 min 0 min 0 W/m² 25,7 km/h (4 Bft) 97,78 %
16.01.2026 05:34 10,8 °C 10,0 °C 6,1 °C 83 % 1008,9 hPa 0,0 l/m² 0 min 0 min 0 W/m² 19,3 km/h (3 Bft) 97,92 %
16.01.2026 05:36 10,8 °C 10,0 °C 6,1 °C 83 % 1008,9 hPa 0,0 l/m² 0 min 0 min 0 W/m² 22,5 km/h (4 Bft) 97,87 %
16.01.2026 05:38 10,8 °C 10,0 °C 6,1 °C 83 % 1008,9 hPa 0,0 l/m² 0 min 0 min 0 W/m² 25,7 km/h (4 Bft) 95,45 %
16.01.2026 05:40 10,8 °C 10,0 °C 6,1 °C 83 % 1008,9 hPa 0,0 l/m² 0 min 0 min 0 W/m² 22,5 km/h (4 Bft) 98,00 %
16.01.2026 05:42 10,8 °C 10,0 °C 6,1 °C 83 % 1009,0 hPa 0,0 l/m² 0 min 0 min 0 W/m² 16,1 km/h (3 Bft) 96,23 %
16.01.2026 05:44 10,8 °C 10,0 °C 6,1 °C 83 % 1009,0 hPa 0,0 l/m² 0 min 0 min 0 W/m² 16,1 km/h (3 Bft) 95,00 %
16.01.2026 05:46 10,9 °C 10,0 °C 6,1 °C 83 % 1009,0 hPa 0,0 l/m² 0 min 0 min 0 W/m² 22,5 km/h (4 Bft) 97,78 %
16.01.2026 05:48 10,9 °C 10,0 °C 6,1 °C 83 % 1009,0 hPa 0,0 l/m² 0 min 0 min 0 W/m² 32,2 km/h (5 Bft) 95,45 %
16.01.2026 05:50 10,9 °C 10,6 °C 6,1 °C 83 % 1009,0 hPa 0,0 l/m² 0 min 0 min 0 W/m² 25,7 km/h (4 Bft) 98,04 %
16.01.2026 05:52 10,9 °C 10,6 °C 6,1 °C 82 % 1009,0 hPa 0,0 l/m² 0 min 0 min 0 W/m² 25,7 km/h (4 Bft) 97,92 %
16.01.2026 05:54 10,9 °C 10,0 °C 6,1 °C 82 % 1009,0 hPa 0,0 l/m² 0 min 0 min 0 W/m² 22,5 km/h (4 Bft) 97,62 %
16.01.2026 05:56 10,9 °C 10,0 °C 6,1 °C 82 % 1009,1 hPa 0,0 l/m² 0 min 0 min 0 W/m² 22,5 km/h (4 Bft) 98,04 %
16.01.2026 05:58 10,9 °C 10,0 °C 6,1 °C 82 % 1009,1 hPa 0,0 l/m² 0 min 0 min 0 W/m² 12,9 km/h (3 Bft) 93,48 %
16.01.2026 06:00 10,9 °C 10,0 °C 6,1 °C 83 % 1009,1 hPa 0,0 l/m² 0 min 0 min 0 W/m² 22,5 km/h (4 Bft) 95,35 %
16.01.2026 06:02 10,9 °C 10,0 °C 6,1 °C 83 % 1009,2 hPa 0,0 l/m² 0 min 0 min 0 W/m² 25,7 km/h (4 Bft) 90,20 %
16.01.2026 06:04 10,9 °C 10,0 °C 6,1 °C 83 % 1009,1 hPa 0,0 l/m² 0 min 0 min 0 W/m² 29,0 km/h (5 Bft) 93,88 %
16.01.2026 06:08 10,9 °C 10,6 °C 6,1 °C 83 % 1009,2 hPa 0,0 l/m² 0 min 0 min 0 W/m² 35,4 km/h (5 Bft) 95,12 %
16.01.2026 06:12 10,9 °C 10,0 °C 6,1 °C 83 % 1009,3 hPa 0,0 l/m² 0 min 0 min 0 W/m² 25,7 km/h (4 Bft) 93,62 %
16.01.2026 06:16 10,9 °C 10,6 °C 6,1 °C 83 % 1009,4 hPa 0,0 l/m² 0 min 0 min 0 W/m² 35,4 km/h (5 Bft) 92,55 %
16.01.2026 06:18 10,9 °C 10,0 °C 6,1 °C 83 % 1009,4 hPa 0,0 l/m² 0 min 0 min 0 W/m² 25,7 km/h (4 Bft) 92,68 %
16.01.2026 06:20 10,9 °C 10,0 °C 6,1 °C 83 % 1009,4 hPa 0,0 l/m² 0 min 0 min 0 W/m² 29,0 km/h (5 Bft) 96,15 %
16.01.2026 06:22 10,9 °C 10,0 °C 6,1 °C 83 % 1009,4 hPa 0,0 l/m² 0 min 0 min 0 W/m² 19,3 km/h (3 Bft) 95,74 %
16.01.2026 06:24 10,9 °C 10,0 °C 6,1 °C 83 % 1009,5 hPa 0,0 l/m² 0 min 0 min 0 W/m² 22,5 km/h (4 Bft) 92,86 %
16.01.2026 06:26 10,9 °C 10,0 °C 6,1 °C 83 % 1009,5 hPa 0,0 l/m² 0 min 0 min 0 W/m² 29,0 km/h (5 Bft) 94,12 %
16.01.2026 06:28 10,9 °C 10,0 °C 6,1 °C 83 % 1009,6 hPa 0,0 l/m² 0 min 0 min 0 W/m² 32,2 km/h (5 Bft) 92,86 %
16.01.2026 06:30 10,9 °C 10,0 °C 6,1 °C 83 % 1009,6 hPa 0,0 l/m² 0 min 0 min 0 W/m² 22,5 km/h (4 Bft) 95,74 %
16.01.2026 06:32 10,9 °C 10,0 °C 6,1 °C 84 % 1009,7 hPa 0,0 l/m² 0 min 0 min 0 W/m² 29,0 km/h (5 Bft) 94,12 %
16.01.2026 06:34 10,8 °C 10,0 °C 6,1 °C 84 % 1009,7 hPa 0,0 l/m² 0 min 0 min 0 W/m² 29,0 km/h (5 Bft) 91,67 %
16.01.2026 06:36 10,8 °C 10,0 °C 6,1 °C 84 % 1009,8 hPa 0,0 l/m² 0 min 0 min 0 W/m² 29,0 km/h (5 Bft) 93,62 %
16.01.2026 06:38 10,8 °C 10,0 °C 6,1 °C 84 % 1009,8 hPa 0,0 l/m² 0 min 0 min 0 W/m² 19,3 km/h (3 Bft) 95,45 %
16.01.2026 06:40 10,8 °C 10,0 °C 6,1 °C 84 % 1009,8 hPa 0,0 l/m² 0 min 0 min 0 W/m² 35,4 km/h (5 Bft) 97,96 %
16.01.2026 06:42 10,8 °C 10,0 °C 6,1 °C 84 % 1009,8 hPa 0,0 l/m² 0 min 0 min 0 W/m² 19,3 km/h (3 Bft) 97,87 %
16.01.2026 06:44 10,8 °C 10,0 °C 6,1 °C 84 % 1009,7 hPa 0,0 l/m² 0 min 0 min 0 W/m² 22,5 km/h (4 Bft) 100,00 %
16.01.2026 06:46 10,8 °C 10,0 °C 6,1 °C 84 % 1009,8 hPa 0,0 l/m² 0 min 0 min 0 W/m² 19,3 km/h (3 Bft) 97,92 %
16.01.2026 06:48 10,8 °C 10,0 °C 6,1 °C 84 % 1009,8 hPa 0,0 l/m² 0 min 0 min 0 W/m² 29,0 km/h (5 Bft) 100,00 %
16.01.2026 06:50 10,8 °C 10,0 °C 6,1 °C 84 % 1009,8 hPa 0,0 l/m² 0 min 0 min 0 W/m² 12,9 km/h (3 Bft) 100,00 %
16.01.2026 06:52 10,8 °C 10,0 °C 6,1 °C 84 % 1009,8 hPa 0,0 l/m² 0 min 0 min 0 W/m² 16,1 km/h (3 Bft) 100,00 %
16.01.2026 06:54 10,7 °C 10,0 °C 6,1 °C 84 % 1009,9 hPa 0,0 l/m² 0 min 0 min 0 W/m² 16,1 km/h (3 Bft) 100,00 %
16.01.2026 06:56 10,7 °C 10,0 °C 6,1 °C 84 % 1010,0 hPa 0,0 l/m² 0 min 0 min 0 W/m² 22,5 km/h (4 Bft) 95,24 %
16.01.2026 06:58 10,7 °C 10,0 °C 6,1 °C 84 % 1010,0 hPa 0,0 l/m² 0 min 0 min 0 W/m² 25,7 km/h (4 Bft) 100,00 %
16.01.2026 07:00 10,7 °C 10,0 °C 6,1 °C 84 % 1010,1 hPa 0,0 l/m² 0 min 0 min 0 W/m² 19,3 km/h (3 Bft) 100,00 %
16.01.2026 07:02 10,7 °C 10,0 °C 6,1 °C 84 % 1010,1 hPa 0,0 l/m² 0 min 0 min 0 W/m² 35,4 km/h (5 Bft) 96,61 %
16.01.2026 07:04 10,7 °C 10,0 °C 6,1 °C 84 % 1010,1 hPa 0,0 l/m² 0 min 0 min 0 W/m² 16,1 km/h (3 Bft) 97,78 %
16.01.2026 07:08 10,7 °C 10,0 °C 6,1 °C 84 % 1010,2 hPa 0,0 l/m² 0 min 0 min 0 W/m² 29,0 km/h (5 Bft) 98,82 %
16.01.2026 07:10 10,7 °C 10,0 °C 6,1 °C 84 % 1010,2 hPa 0,0 l/m² 0 min 0 min 0 W/m² 19,3 km/h (3 Bft) 98,31 %
16.01.2026 07:12 10,7 °C 10,0 °C 5,6 °C 84 % 1010,2 hPa 0,0 l/m² 0 min 0 min 0 W/m² 16,1 km/h (3 Bft) 100,00 %
16.01.2026 07:14 10,7 °C 10,0 °C 5,6 °C 84 % 1010,3 hPa 0,0 l/m² 0 min 0 min 0 W/m² 16,1 km/h (3 Bft) 100,00 %
16.01.2026 07:16 10,7 °C 10,0 °C 5,6 °C 84 % 1010,3 hPa 0,0 l/m² 0 min 0 min 0 W/m² 16,1 km/h (3 Bft) 98,28 %
16.01.2026 07:18 10,6 °C 10,0 °C 5,6 °C 84 % 1010,3 hPa 0,0 l/m² 0 min 0 min 0 W/m² 9,7 km/h (2 Bft) 100,00 %
16.01.2026 07:20 10,6 °C 10,0 °C 5,6 °C 84 % 1010,3 hPa 0,0 l/m² 0 min 0 min 0 W/m² 16,1 km/h (3 Bft) 100,00 %
16.01.2026 07:22 10,6 °C 10,0 °C 5,6 °C 85 % 1010,4 hPa 0,0 l/m² 0 min 0 min 0 W/m² 19,3 km/h (3 Bft) 100,00 %
16.01.2026 07:24 10,6 °C 10,0 °C 5,6 °C 85 % 1010,4 hPa 0,0 l/m² 0 min 0 min 0 W/m² 19,3 km/h (3 Bft) 95,74 %
16.01.2026 07:26 10,6 °C 10,0 °C 5,6 °C 85 % 1010,5 hPa 0,0 l/m² 0 min 0 min 0 W/m² 16,1 km/h (3 Bft) 100,00 %
16.01.2026 07:28 10,6 °C 10,0 °C 5,6 °C 85 % 1010,5 hPa 0,0 l/m² 0 min 0 min 0 W/m² 9,7 km/h (2 Bft) 100,00 %
16.01.2026 07:30 10,6 °C 10,0 °C 5,6 °C 85 % 1010,6 hPa 0,0 l/m² 0 min 0 min 0 W/m² 19,3 km/h (3 Bft) 100,00 %
16.01.2026 07:32 10,6 °C 10,0 °C 5,6 °C 85 % 1010,6 hPa 0,0 l/m² 0 min 0 min 0 W/m² 16,1 km/h (3 Bft) 100,00 %
16.01.2026 07:34 10,6 °C 10,0 °C 6,1 °C 85 % 1010,6 hPa 0,0 l/m² 0 min 0 min 0 W/m² 29,0 km/h (5 Bft) 100,00 %
16.01.2026 07:36 10,6 °C 10,0 °C 6,1 °C 85 % 1010,6 hPa 0,0 l/m² 0 min 0 min 0 W/m² 16,1 km/h (3 Bft) 100,00 %
16.01.2026 07:38 10,6 °C 10,0 °C 6,1 °C 85 % 1010,6 hPa 0,0 l/m² 0 min 0 min 0 W/m² 9,7 km/h (2 Bft) 100,00 %
16.01.2026 07:40 10,6 °C 10,0 °C 5,6 °C 85 % 1010,7 hPa 0,0 l/m² 0 min 0 min 0 W/m² 19,3 km/h (3 Bft) 100,00 %
16.01.2026 07:42 10,6 °C 10,0 °C 5,6 °C 85 % 1010,7 hPa 0,0 l/m² 0 min 0 min 0 W/m² 12,9 km/h (3 Bft) 100,00 %
16.01.2026 07:44 10,6 °C 10,0 °C 5,6 °C 85 % 1010,6 hPa 0,0 l/m² 0 min 0 min 0 W/m² 12,9 km/h (3 Bft) 97,83 %
16.01.2026 07:46 10,6 °C 9,4 °C 5,6 °C 85 % 1010,7 hPa 0,0 l/m² 0 min 0 min 0 W/m² 12,9 km/h (3 Bft) 100,00 %
16.01.2026 07:48 10,5 °C 9,4 °C 5,6 °C 85 % 1010,7 hPa 0,0 l/m² 0 min 0 min 0 W/m² 12,9 km/h (3 Bft) 100,00 %
16.01.2026 07:50 10,5 °C 9,4 °C 5,6 °C 85 % 1010,7 hPa 0,0 l/m² 0 min 0 min 0 W/m² 12,9 km/h (3 Bft) 100,00 %
16.01.2026 07:52 10,5 °C 9,4 °C 5,6 °C 85 % 1010,7 hPa 0,0 l/m² 0 min 0 min 0 W/m² 16,1 km/h (3 Bft) 100,00 %
16.01.2026 07:54 10,4 °C 9,4 °C 5,6 °C 85 % 1010,8 hPa 0,0 l/m² 0 min 0 min 0 W/m² 12,9 km/h (3 Bft) 100,00 %
16.01.2026 07:56 10,4 °C 9,4 °C 5,6 °C 85 % 1010,9 hPa 0,0 l/m² 0 min 0 min 0 W/m² 16,1 km/h (3 Bft) 94,74 %
16.01.2026 07:58 10,4 °C 9,4 °C 5,6 °C 85 % 1010,9 hPa 0,0 l/m² 0 min 0 min 0 W/m² 12,9 km/h (3 Bft) 100,00 %
16.01.2026 08:00 10,4 °C 9,4 °C 5,6 °C 85 % 1011,0 hPa 0,0 l/m² 0 min 0 min 0 W/m² 16,1 km/h (3 Bft) 100,00 %
16.01.2026 08:02 10,4 °C 9,4 °C 5,6 °C 85 % 1011,0 hPa 0,0 l/m² 0 min 0 min 0 W/m² 12,9 km/h (3 Bft) 100,00 %
16.01.2026 08:04 10,4 °C 9,4 °C 5,6 °C 85 % 1011,0 hPa 0,0 l/m² 0 min 0 min 0 W/m² 12,9 km/h (3 Bft) 95,92 %
16.01.2026 08:08 10,4 °C 9,4 °C 5,6 °C 86 % 1011,1 hPa 0,0 l/m² 0 min 0 min 0 W/m² 9,7 km/h (2 Bft) 95,65 %
16.01.2026 08:10 10,3 °C 9,4 °C 5,6 °C 86 % 1011,1 hPa 0,0 l/m² 0 min 0 min 0 W/m² 16,1 km/h (3 Bft) 95,83 %
16.01.2026 08:12 10,3 °C 9,4 °C 5,6 °C 86 % 1011,2 hPa 0,0 l/m² 0 min 0 min 0 W/m² 6,4 km/h (2 Bft) 97,87 %
16.01.2026 08:14 10,3 °C 9,4 °C 5,6 °C 86 % 1011,2 hPa 0,0 l/m² 0 min 0 min 0 W/m² 9,7 km/h (2 Bft) 97,87 %
16.01.2026 08:16 10,3 °C 9,4 °C 5,6 °C 86 % 1011,2 hPa 0,0 l/m² 0 min 0 min 0 W/m² 9,7 km/h (2 Bft) 98,11 %
16.01.2026 08:18 10,3 °C 9,4 °C 5,6 °C 86 % 1011,2 hPa 0,0 l/m² 0 min 0 min 0 W/m² 6,4 km/h (2 Bft) 97,50 %
16.01.2026 08:20 10,3 °C 9,4 °C 5,6 °C 86 % 1011,3 hPa 0,0 l/m² 0 min 0 min 0 W/m² 12,9 km/h (3 Bft) 93,62 %
16.01.2026 08:22 10,3 °C 9,4 °C 5,6 °C 86 % 1011,3 hPa 0,0 l/m² 0 min 0 min 0 W/m² 16,1 km/h (3 Bft) 93,62 %
16.01.2026 08:24 10,2 °C 9,4 °C 5,6 °C 86 % 1011,3 hPa 0,0 l/m² 0 min 0 min 0 W/m² 9,7 km/h (2 Bft) 90,91 %
16.01.2026 08:26 10,2 °C 9,4 °C 5,6 °C 86 % 1011,4 hPa 0,0 l/m² 0 min 0 min 0 W/m² 16,1 km/h (3 Bft) 95,74 %
16.01.2026 08:28 10,2 °C 9,4 °C 5,6 °C 86 % 1011,4 hPa 0,0 l/m² 0 min 0 min 0 W/m² 9,7 km/h (2 Bft) 94,74 %
16.01.2026 08:30 10,2 °C 9,4 °C 5,6 °C 86 % 1011,4 hPa 0,0 l/m² 0 min 0 min 0 W/m² 12,9 km/h (3 Bft) 95,74 %
16.01.2026 08:32 10,2 °C 9,4 °C 5,0 °C 86 % 1011,4 hPa 0,0 l/m² 0 min 0 min 0 W/m² 9,7 km/h (2 Bft) 95,74 %
16.01.2026 08:34 10,2 °C 9,4 °C 5,0 °C 86 % 1011,4 hPa 0,0 l/m² 0 min 0 min 0 W/m² 12,9 km/h (3 Bft) 95,74 %
16.01.2026 08:36 10,1 °C 9,4 °C 5,0 °C 86 % 1011,5 hPa 0,0 l/m² 0 min 0 min 0 W/m² 12,9 km/h (3 Bft) 92,59 %
16.01.2026 08:38 10,1 °C 9,4 °C 5,0 °C 86 % 1011,5 hPa 0,0 l/m² 0 min 0 min 0 W/m² 12,9 km/h (3 Bft) 97,92 %
16.01.2026 08:40 10,1 °C 9,4 °C 5,0 °C 86 % 1011,5 hPa 0,0 l/m² 0 min 0 min 3 W/m² 12,9 km/h (3 Bft) 94,59 %
16.01.2026 08:42 10,1 °C 9,4 °C 5,0 °C 86 % 1011,5 hPa 0,0 l/m² 0 min 0 min 5 W/m² 16,1 km/h (3 Bft) 95,83 %
16.01.2026 08:44 10,1 °C 9,4 °C 5,0 °C 86 % 1011,5 hPa 0,0 l/m² 0 min 0 min 5 W/m² 19,3 km/h (3 Bft) 95,74 %
16.01.2026 08:46 10,1 °C 9,4 °C 5,0 °C 87 % 1011,6 hPa 0,0 l/m² 0 min 0 min 5 W/m² 6,4 km/h (2 Bft) 93,62 %
16.01.2026 08:48 10,1 °C 9,4 °C 5,0 °C 87 % 1011,6 hPa 0,0 l/m² 0 min 0 min 7 W/m² 12,9 km/h (3 Bft) 94,34 %
16.01.2026 08:50 10,1 °C 9,4 °C 5,0 °C 86 % 1011,7 hPa 0,0 l/m² 0 min 0 min 7 W/m² 19,3 km/h (3 Bft) 95,92 %
16.01.2026 08:52 10,1 °C 9,4 °C 5,0 °C 87 % 1011,8 hPa 0,0 l/m² 0 min 0 min 7 W/m² 16,1 km/h (3 Bft) 94,74 %
16.01.2026 08:54 10,1 °C 9,4 °C 5,0 °C 87 % 1011,8 hPa 0,0 l/m² 0 min 0 min 9 W/m² 9,7 km/h (2 Bft) 95,74 %
16.01.2026 08:56 10,0 °C 9,4 °C 5,0 °C 87 % 1011,8 hPa 0,0 l/m² 0 min 0 min 11 W/m² 6,4 km/h (2 Bft) 92,59 %
16.01.2026 08:58 10,0 °C 8,9 °C 5,0 °C 87 % 1011,7 hPa 0,0 l/m² 0 min 0 min 11 W/m² 9,7 km/h (2 Bft) 94,87 %
16.01.2026 09:00 9,9 °C 8,9 °C 5,0 °C 87 % 1011,7 hPa 0,0 l/m² 0 min 0 min 11 W/m² 9,7 km/h (2 Bft) 95,83 %
16.01.2026 09:02 9,9 °C 8,9 °C 5,0 °C 87 % 1011,8 hPa 0,0 l/m² 0 min 0 min 12 W/m² 9,7 km/h (2 Bft) 95,83 %
16.01.2026 09:04 9,9 °C 8,9 °C 5,0 °C 87 % 1011,8 hPa 0,0 l/m² 0 min 0 min 13 W/m² 9,7 km/h (2 Bft) 95,83 %
16.01.2026 09:08 9,9 °C 8,9 °C 5,0 °C 87 % 1011,9 hPa 0,0 l/m² 0 min 0 min 17 W/m² 16,1 km/h (3 Bft) 92,31 %
16.01.2026 09:10 9,8 °C 8,9 °C 5,0 °C 87 % 1011,9 hPa 0,0 l/m² 0 min 0 min 20 W/m² 12,9 km/h (3 Bft) 97,96 %
16.01.2026 09:12 9,8 °C 8,9 °C 5,0 °C 87 % 1011,9 hPa 0,0 l/m² 0 min 0 min 23 W/m² 9,7 km/h (2 Bft) 93,75 %
16.01.2026 09:14 9,8 °C 8,9 °C 5,0 °C 87 % 1011,9 hPa 0,0 l/m² 0 min 0 min 25 W/m² 9,7 km/h (2 Bft) 95,74 %
16.01.2026 09:16 9,8 °C 8,9 °C 5,0 °C 87 % 1012,0 hPa 0,0 l/m² 0 min 0 min 26 W/m² 12,9 km/h (3 Bft) 96,23 %
16.01.2026 09:18 9,8 °C 9,4 °C 5,0 °C 87 % 1011,9 hPa 0,0 l/m² 0 min 0 min 28 W/m² 9,7 km/h (2 Bft) 95,74 %
16.01.2026 09:20 9,8 °C 9,4 °C 5,0 °C 87 % 1012,0 hPa 0,0 l/m² 0 min 0 min 28 W/m² 6,4 km/h (2 Bft) 97,37 %
16.01.2026 09:22 9,8 °C 9,4 °C 5,0 °C 87 % 1012,1 hPa 0,0 l/m² 0 min 0 min 30 W/m² 12,9 km/h (3 Bft) 100,00 %
16.01.2026 09:24 9,8 °C 9,4 °C 5,0 °C 87 % 1012,1 hPa 0,0 l/m² 0 min 0 min 33 W/m² 9,7 km/h (2 Bft) 100,00 %
16.01.2026 09:26 9,8 °C 9,4 °C 5,0 °C 87 % 1012,1 hPa 0,0 l/m² 0 min 0 min 35 W/m² 6,4 km/h (2 Bft) 95,74 %
16.01.2026 09:28 9,8 °C 9,4 °C 5,0 °C 87 % 1012,2 hPa 0,0 l/m² 0 min 0 min 37 W/m² 6,4 km/h (2 Bft) 100,00 %
16.01.2026 09:30 9,8 °C 9,4 °C 5,0 °C 87 % 1012,2 hPa 0,0 l/m² 0 min 0 min 40 W/m² 6,4 km/h (2 Bft) 100,00 %
16.01.2026 09:32 9,8 °C 9,4 °C 5,0 °C 87 % 1012,2 hPa 0,0 l/m² 0 min 0 min 43 W/m² 12,9 km/h (3 Bft) 100,00 %
16.01.2026 09:34 9,8 °C 9,4 °C 5,0 °C 88 % 1012,2 hPa 0,0 l/m² 0 min 0 min 46 W/m² 3,2 km/h (1 Bft) 98,00 %
16.01.2026 09:36 9,7 °C 9,4 °C 5,0 °C 88 % 1012,3 hPa 0,0 l/m² 0 min 0 min 49 W/m² 6,4 km/h (2 Bft) 97,87 %
16.01.2026 09:38 9,8 °C 9,4 °C 5,0 °C 88 % 1012,3 hPa 0,0 l/m² 0 min 0 min 54 W/m² 6,4 km/h (2 Bft) 97,87 %
16.01.2026 09:40 9,7 °C 9,4 °C 5,0 °C 88 % 1012,3 hPa 0,0 l/m² 0 min 0 min 58 W/m² 6,4 km/h (2 Bft) 100,00 %
16.01.2026 09:42 9,8 °C 9,4 °C 5,0 °C 88 % 1012,3 hPa 0,0 l/m² 0 min 0 min 61 W/m² 3,2 km/h (1 Bft) 100,00 %
16.01.2026 09:44 9,8 °C 9,4 °C 5,0 °C 88 % 1012,3 hPa 0,0 l/m² 0 min 0 min 63 W/m² 3,2 km/h (1 Bft) 100,00 %
16.01.2026 09:46 9,8 °C 9,4 °C 5,0 °C 88 % 1012,3 hPa 0,0 l/m² 0 min 0 min 65 W/m² 3,2 km/h (1 Bft) 100,00 %
16.01.2026 09:48 9,8 °C 10,0 °C 5,0 °C 88 % 1012,4 hPa 0,0 l/m² 0 min 0 min 69 W/m² 3,2 km/h (1 Bft) 97,37 %
16.01.2026 09:50 9,8 °C 10,0 °C 5,0 °C 88 % 1012,4 hPa 0,0 l/m² 0 min 0 min 71 W/m² 3,2 km/h (1 Bft) 100,00 %
16.01.2026 09:52 9,8 °C 10,0 °C 5,0 °C 88 % 1012,5 hPa 0,0 l/m² 0 min 0 min 76 W/m² 3,2 km/h (1 Bft) 100,00 %
16.01.2026 09:54 9,8 °C 10,0 °C 5,6 °C 88 % 1012,5 hPa 0,0 l/m² 0 min 0 min 80 W/m² 3,2 km/h (1 Bft) 100,00 %
16.01.2026 09:56 9,8 °C 10,0 °C 5,6 °C 88 % 1012,5 hPa 0,0 l/m² 0 min 0 min 81 W/m² 6,4 km/h (2 Bft) 100,00 %
16.01.2026 09:58 9,8 °C 10,0 °C 5,6 °C 88 % 1012,5 hPa 0,0 l/m² 0 min 0 min 79 W/m² 6,4 km/h (2 Bft) 100,00 %
16.01.2026 10:00 9,8 °C 10,0 °C 5,6 °C 88 % 1012,6 hPa 0,0 l/m² 0 min 0 min 79 W/m² 3,2 km/h (1 Bft) 97,78 %
16.01.2026 10:02 9,8 °C 10,0 °C 5,6 °C 88 % 1012,7 hPa 0,0 l/m² 0 min 0 min 76 W/m² 6,4 km/h (2 Bft) 97,96 %
16.01.2026 10:04 9,8 °C 9,4 °C 5,6 °C 88 % 1012,7 hPa 0,0 l/m² 0 min 0 min 72 W/m² 3,2 km/h (1 Bft) 97,67 %
16.01.2026 10:08 9,8 °C 9,4 °C 5,6 °C 88 % 1012,8 hPa 0,0 l/m² 0 min 0 min 63 W/m² 6,4 km/h (2 Bft) 97,94 %
16.01.2026 10:10 9,8 °C 9,4 °C 5,6 °C 88 % 1012,8 hPa 0,0 l/m² 0 min 0 min 58 W/m² 3,2 km/h (1 Bft) 97,96 %
16.01.2026 10:12 9,8 °C 9,4 °C 5,6 °C 88 % 1012,8 hPa 0,0 l/m² 0 min 0 min 60 W/m² 6,4 km/h (2 Bft) 95,74 %
16.01.2026 10:14 9,9 °C 9,4 °C 5,0 °C 88 % 1012,8 hPa 0,0 l/m² 0 min 0 min 62 W/m² 3,2 km/h (1 Bft) 95,74 %
16.01.2026 10:16 9,8 °C 9,4 °C 5,0 °C 88 % 1012,8 hPa 0,0 l/m² 0 min 0 min 60 W/m² 3,2 km/h (1 Bft) 97,83 %
16.01.2026 10:18 9,8 °C 9,4 °C 5,0 °C 88 % 1012,8 hPa 0,0 l/m² 0 min 0 min 63 W/m² 6,4 km/h (2 Bft) 95,74 %
16.01.2026 10:20 9,8 °C 9,4 °C 5,0 °C 88 % 1012,9 hPa 0,0 l/m² 0 min 0 min 67 W/m² 9,7 km/h (2 Bft) 97,87 %
16.01.2026 10:22 9,8 °C 9,4 °C 5,0 °C 88 % 1012,9 hPa 0,0 l/m² 0 min 0 min 70 W/m² 12,9 km/h (3 Bft) 97,87 %
16.01.2026 10:24 9,8 °C 9,4 °C 5,0 °C 88 % 1013,0 hPa 0,0 l/m² 0 min 0 min 68 W/m² 6,4 km/h (2 Bft) 100,00 %
16.01.2026 10:26 9,8 °C 9,4 °C 5,6 °C 88 % 1013,0 hPa 0,0 l/m² 0 min 0 min 64 W/m² 6,4 km/h (2 Bft) 95,74 %
16.01.2026 10:28 9,8 °C 9,4 °C 5,6 °C 88 % 1013,1 hPa 0,0 l/m² 0 min 0 min 65 W/m² 6,4 km/h (2 Bft) 94,44 %
16.01.2026 10:30 9,8 °C 9,4 °C 5,6 °C 89 % 1013,1 hPa 0,0 l/m² 0 min 0 min 70 W/m² 6,4 km/h (2 Bft) 97,87 %
16.01.2026 10:32 9,8 °C 9,4 °C 5,6 °C 89 % 1013,1 hPa 0,0 l/m² 0 min 0 min 76 W/m² 6,4 km/h (2 Bft) 100,00 %
16.01.2026 10:34 9,8 °C 9,4 °C 5,6 °C 89 % 1013,2 hPa 0,0 l/m² 0 min 0 min 81 W/m² 12,9 km/h (3 Bft) 100,00 %
16.01.2026 10:36 9,8 °C 9,4 °C 5,6 °C 89 % 1013,2 hPa 0,0 l/m² 0 min 0 min 88 W/m² 12,9 km/h (3 Bft) 100,00 %
16.01.2026 10:38 9,8 °C 9,4 °C 5,6 °C 89 % 1013,3 hPa 0,0 l/m² 0 min 0 min 94 W/m² 12,9 km/h (3 Bft) 97,67 %
16.01.2026 10:40 9,8 °C 10,0 °C 5,6 °C 89 % 1013,3 hPa 0,0 l/m² 0 min 0 min 100 W/m² 12,9 km/h (3 Bft) 100,00 %
16.01.2026 10:42 9,9 °C 10,0 °C 5,6 °C 89 % 1013,3 hPa 0,0 l/m² 0 min 0 min 104 W/m² 16,1 km/h (3 Bft) 100,00 %
16.01.2026 10:44 9,9 °C 10,0 °C 5,6 °C 89 % 1013,3 hPa 0,0 l/m² 0 min 0 min 104 W/m² 9,7 km/h (2 Bft) 100,00 %
16.01.2026 10:46 9,9 °C 10,0 °C 5,6 °C 90 % 1013,3 hPa 0,0 l/m² 0 min 0 min 104 W/m² 12,9 km/h (3 Bft) 100,00 %
16.01.2026 10:48 9,9 °C 10,0 °C 5,6 °C 90 % 1013,4 hPa 0,0 l/m² 0 min 0 min 103 W/m² 12,9 km/h (3 Bft) 100,00 %
16.01.2026 10:50 10,0 °C 10,0 °C 6,1 °C 90 % 1013,4 hPa 0,0 l/m² 0 min 0 min 98 W/m² 12,9 km/h (3 Bft) 59,18 %
16.01.2026 10:52 10,1 °C 10,0 °C 6,1 °C 90 % 1013,4 hPa 0,0 l/m² 0 min 0 min 101 W/m² 6,4 km/h (2 Bft) 100,00 %
16.01.2026 10:54 10,1 °C 10,6 °C 6,1 °C 90 % 1013,4 hPa 0,0 l/m² 2 min 0 min 136 W/m² 12,9 km/h (3 Bft) 100,00 %
16.01.2026 10:56 10,1 °C 10,6 °C 6,1 °C 90 % 1013,4 hPa 0,0 l/m² 0 min 0 min 136 W/m² 6,4 km/h (2 Bft) 100,00 %
16.01.2026 10:58 10,1 °C 10,6 °C 6,1 °C 90 % 1013,4 hPa 0,0 l/m² 0 min 0 min 125 W/m² 12,9 km/h (3 Bft) 100,00 %
16.01.2026 11:00 10,2 °C 10,6 °C 6,1 °C 90 % 1013,4 hPa 0,0 l/m² 0 min 0 min 126 W/m² 12,9 km/h (3 Bft) 100,00 %
16.01.2026 11:02 10,2 °C 10,6 °C 6,1 °C 90 % 1013,4 hPa 0,0 l/m² 0 min 0 min 131 W/m² 6,4 km/h (2 Bft) 100,00 %
16.01.2026 11:04 10,2 °C 10,6 °C 6,1 °C 90 % 1013,5 hPa 0,0 l/m² 0 min 0 min 129 W/m² 12,9 km/h (3 Bft) 100,00 %
16.01.2026 11:08 10,3 °C 10,6 °C 6,7 °C 90 % 1013,5 hPa 0,0 l/m² 0 min 0 min 130 W/m² 12,9 km/h (3 Bft) 98,94 %
16.01.2026 11:10 10,3 °C 10,6 °C 6,7 °C 90 % 1013,6 hPa 0,0 l/m² 0 min 0 min 114 W/m² 6,4 km/h (2 Bft) 95,74 %
16.01.2026 11:12 10,3 °C 10,6 °C 6,7 °C 90 % 1013,6 hPa 0,0 l/m² 0 min 0 min 110 W/m² 12,9 km/h (3 Bft) 97,14 %
16.01.2026 11:14 10,4 °C 10,6 °C 6,7 °C 90 % 1013,6 hPa 0,0 l/m² 0 min 0 min 105 W/m² 12,9 km/h (3 Bft) 97,87 %
16.01.2026 11:16 10,4 °C 11,1 °C 6,7 °C 90 % 1013,6 hPa 0,0 l/m² 0 min 0 min 114 W/m² 6,4 km/h (2 Bft) 97,83 %
16.01.2026 11:18 10,5 °C 11,1 °C 6,7 °C 89 % 1013,6 hPa 0,0 l/m² 0 min 0 min 129 W/m² 6,4 km/h (2 Bft) 96,36 %
16.01.2026 11:20 10,5 °C 11,1 °C 6,7 °C 89 % 1013,6 hPa 0,0 l/m² 2 min 0 min 152 W/m² 6,4 km/h (2 Bft) 95,83 %
16.01.2026 11:22 10,6 °C 11,7 °C 6,7 °C 89 % 1013,6 hPa 0,0 l/m² 0 min 0 min 142 W/m² 6,4 km/h (2 Bft) 95,65 %
16.01.2026 11:24 10,6 °C 11,7 °C 6,7 °C 89 % 1013,6 hPa 0,0 l/m² 0 min 0 min 132 W/m² 6,4 km/h (2 Bft) 97,92 %
16.01.2026 11:26 10,6 °C 11,7 °C 6,7 °C 89 % 1013,6 hPa 0,0 l/m² 0 min 0 min 133 W/m² 12,9 km/h (3 Bft) 97,87 %
16.01.2026 11:28 10,7 °C 11,1 °C 6,7 °C 89 % 1013,6 hPa 0,0 l/m² 0 min 0 min 144 W/m² 12,9 km/h (3 Bft) 93,88 %
16.01.2026 11:30 10,7 °C 11,1 °C 6,7 °C 89 % 1013,6 hPa 0,0 l/m² 0 min 0 min 148 W/m² 12,9 km/h (3 Bft) 93,62 %
16.01.2026 11:32 10,7 °C 11,1 °C 6,7 °C 89 % 1013,6 hPa 0,0 l/m² 0 min 0 min 146 W/m² 6,4 km/h (2 Bft) 97,87 %
16.01.2026 11:34 10,8 °C 11,1 °C 6,7 °C 89 % 1013,6 hPa 0,0 l/m² 0 min 0 min 145 W/m² 6,4 km/h (2 Bft) 93,62 %
16.01.2026 11:36 10,8 °C 11,1 °C 6,7 °C 89 % 1013,6 hPa 0,0 l/m² 0 min 0 min 140 W/m² 6,4 km/h (2 Bft) 94,29 %
16.01.2026 11:38 10,8 °C 11,1 °C 6,7 °C 89 % 1013,6 hPa 0,0 l/m² 0 min 0 min 133 W/m² 6,4 km/h (2 Bft) 96,23 %
16.01.2026 11:40 10,8 °C 11,1 °C 6,7 °C 89 % 1013,6 hPa 0,0 l/m² 0 min 0 min 121 W/m² 6,4 km/h (2 Bft) 93,75 %
16.01.2026 11:42 10,9 °C 11,1 °C 6,7 °C 89 % 1013,6 hPa 0,0 l/m² 0 min 0 min 110 W/m² 12,9 km/h (3 Bft) 94,00 %
16.01.2026 11:44 10,9 °C 11,1 °C 6,7 °C 89 % 1013,6 hPa 0,0 l/m² 0 min 0 min 104 W/m² 6,4 km/h (2 Bft) 95,83 %
16.01.2026 11:46 10,9 °C 11,1 °C 6,7 °C 89 % 1013,6 hPa 0,0 l/m² 0 min 0 min 97 W/m² 6,4 km/h (2 Bft) 95,74 %
16.01.2026 11:48 10,9 °C 11,1 °C 6,7 °C 89 % 1013,6 hPa 0,0 l/m² 0 min 0 min 92 W/m² 6,4 km/h (2 Bft) 93,48 %
16.01.2026 11:50 11,0 °C 11,1 °C 6,7 °C 89 % 1013,7 hPa 0,0 l/m² 0 min 0 min 90 W/m² 12,9 km/h (3 Bft) 95,74 %
16.01.2026 11:52 11,0 °C 11,1 °C 6,7 °C 89 % 1013,7 hPa 0,0 l/m² 0 min 0 min 90 W/m² 6,4 km/h (2 Bft) 95,74 %
16.01.2026 11:54 11,1 °C 11,1 °C 6,7 °C 89 % 1013,7 hPa 0,0 l/m² 0 min 0 min 92 W/m² 12,9 km/h (3 Bft) 95,74 %
16.01.2026 11:56 11,1 °C 11,1 °C 6,7 °C 88 % 1013,7 hPa 0,0 l/m² 0 min 0 min 90 W/m² 12,9 km/h (3 Bft) 97,14 %
16.01.2026 11:58 11,1 °C 11,1 °C 6,7 °C 88 % 1013,7 hPa 0,0 l/m² 0 min 0 min 92 W/m² 12,9 km/h (3 Bft) 95,74 %
16.01.2026 12:00 11,1 °C 11,1 °C 6,7 °C 88 % 1013,7 hPa 0,0 l/m² 0 min 0 min 95 W/m² 12,9 km/h (3 Bft) 98,11 %
16.01.2026 12:02 11,1 °C 11,1 °C 6,7 °C 88 % 1013,7 hPa 0,0 l/m² 0 min 0 min 98 W/m² 12,9 km/h (3 Bft) 93,88 %
16.01.2026 12:04 11,1 °C 11,1 °C 6,7 °C 88 % 1013,6 hPa 0,0 l/m² 0 min 0 min 96 W/m² 12,9 km/h (3 Bft) 96,08 %
16.01.2026 12:08 11,1 °C 10,6 °C 6,7 °C 88 % 1013,6 hPa 0,0 l/m² 0 min 0 min 92 W/m² 16,1 km/h (3 Bft) 93,68 %
16.01.2026 12:10 11,1 °C 10,6 °C 6,7 °C 88 % 1013,6 hPa 0,0 l/m² 0 min 0 min 80 W/m² 6,4 km/h (2 Bft) 94,29 %
16.01.2026 12:12 11,1 °C 10,6 °C 6,7 °C 88 % 1013,6 hPa 0,0 l/m² 0 min 0 min 72 W/m² 12,9 km/h (3 Bft) 96,23 %
16.01.2026 12:16 11,1 °C 10,6 °C 6,7 °C 88 % 1013,7 hPa 0,0 l/m² 0 min 0 min 70 W/m² 9,7 km/h (2 Bft) 95,83 %
16.01.2026 12:18 11,1 °C 10,6 °C 6,7 °C 88 % 1013,7 hPa 0,0 l/m² 0 min 0 min 72 W/m² 12,9 km/h (3 Bft) 94,74 %
16.01.2026 12:20 11,1 °C 10,6 °C 6,7 °C 88 % 1013,7 hPa 0,0 l/m² 0 min 0 min 70 W/m² 6,4 km/h (2 Bft) 96,30 %
16.01.2026 12:22 11,1 °C 10,6 °C 6,7 °C 88 % 1013,7 hPa 0,0 l/m² 0 min 0 min 65 W/m² 16,1 km/h (3 Bft) 95,83 %
16.01.2026 12:24 11,1 °C 10,6 °C 6,7 °C 88 % 1013,7 hPa 0,0 l/m² 0 min 0 min 59 W/m² 12,9 km/h (3 Bft) 97,92 %
16.01.2026 12:26 11,1 °C 10,6 °C 6,7 °C 88 % 1013,7 hPa 0,0 l/m² 0 min 0 min 57 W/m² 12,9 km/h (3 Bft) 95,92 %
16.01.2026 12:28 11,1 °C 10,6 °C 6,7 °C 88 % 1013,7 hPa 0,0 l/m² 0 min 0 min 60 W/m² 12,9 km/h (3 Bft) 100,00 %
16.01.2026 12:30 11,1 °C 10,6 °C 6,7 °C 88 % 1013,7 hPa 0,0 l/m² 0 min 0 min 58 W/m² 3,2 km/h (1 Bft) 98,15 %
16.01.2026 12:32 11,1 °C 10,6 °C 6,7 °C 88 % 1013,7 hPa 0,0 l/m² 0 min 0 min 55 W/m² 12,9 km/h (3 Bft) 97,92 %
16.01.2026 12:34 11,1 °C 10,6 °C 6,7 °C 88 % 1013,7 hPa 0,0 l/m² 0 min 0 min 54 W/m² 16,1 km/h (3 Bft) 93,88 %
16.01.2026 12:36 11,1 °C 10,6 °C 6,7 °C 88 % 1013,7 hPa 0,0 l/m² 0 min 0 min 53 W/m² 16,1 km/h (3 Bft) 100,00 %
16.01.2026 12:38 11,1 °C 10,6 °C 6,7 °C 88 % 1013,7 hPa 0,0 l/m² 0 min 0 min 53 W/m² 16,1 km/h (3 Bft) 100,00 %
16.01.2026 12:40 11,0 °C 10,6 °C 6,7 °C 88 % 1013,7 hPa 0,0 l/m² 0 min 0 min 52 W/m² 6,4 km/h (2 Bft) 100,00 %
16.01.2026 12:42 11,0 °C 10,6 °C 6,7 °C 88 % 1013,8 hPa 0,0 l/m² 0 min 0 min 49 W/m² 12,9 km/h (3 Bft) 97,96 %
16.01.2026 12:44 11,0 °C 10,6 °C 6,1 °C 88 % 1013,7 hPa 0,0 l/m² 0 min 0 min 51 W/m² 9,7 km/h (2 Bft) 100,00 %
16.01.2026 12:46 11,1 °C 10,0 °C 6,1 °C 88 % 1013,7 hPa 0,0 l/m² 0 min 0 min 49 W/m² 12,9 km/h (3 Bft) 100,00 %
16.01.2026 12:48 11,1 °C 10,0 °C 6,1 °C 89 % 1013,7 hPa 0,0 l/m² 0 min 0 min 47 W/m² 12,9 km/h (3 Bft) 98,18 %
16.01.2026 12:50 11,1 °C 10,0 °C 6,1 °C 89 % 1013,7 hPa 0,0 l/m² 0 min 0 min 41 W/m² 6,4 km/h (2 Bft) 98,00 %
16.01.2026 12:52 11,1 °C 10,0 °C 6,1 °C 89 % 1013,6 hPa 0,0 l/m² 0 min 0 min 38 W/m² 9,7 km/h (2 Bft) 100,00 %
16.01.2026 12:54 11,0 °C 10,0 °C 6,1 °C 89 % 1013,7 hPa 0,0 l/m² 0 min 0 min 35 W/m² 6,4 km/h (2 Bft) 98,18 %
16.01.2026 12:56 11,0 °C 10,0 °C 6,1 °C 89 % 1013,7 hPa 0,0 l/m² 0 min 0 min 31 W/m² 12,9 km/h (3 Bft) 95,74 %
16.01.2026 12:58 11,0 °C 10,0 °C 6,1 °C 89 % 1013,7 hPa 0,0 l/m² 0 min 0 min 31 W/m² 9,7 km/h (2 Bft) 100,00 %
16.01.2026 13:00 10,9 °C 10,0 °C 6,1 °C 89 % 1013,7 hPa 0,0 l/m² 0 min 0 min 33 W/m² 3,2 km/h (1 Bft) 50,00 %
16.01.2026 13:02 10,9 °C 10,0 °C 6,1 °C 90 % 1013,7 hPa 0,0 l/m² 0 min 0 min 33 W/m² 6,4 km/h (2 Bft) 100,00 %
16.01.2026 13:04 10,9 °C 10,0 °C 5,6 °C 90 % 1013,7 hPa 0,0 l/m² 0 min 0 min 33 W/m² 6,4 km/h (2 Bft) 100,00 %
16.01.2026 13:08 10,9 °C 10,0 °C 5,6 °C 90 % 1013,7 hPa 0,0 l/m² 0 min 0 min 34 W/m² 6,4 km/h (2 Bft) 98,94 %
16.01.2026 13:10 10,9 °C 10,0 °C 5,6 °C 90 % 1013,7 hPa 0,0 l/m² 0 min 0 min 30 W/m² 3,2 km/h (1 Bft) 100,00 %
16.01.2026 13:12 10,8 °C 10,0 °C 5,6 °C 90 % 1013,7 hPa 0,0 l/m² 0 min 0 min 29 W/m² 6,4 km/h (2 Bft) 100,00 %
16.01.2026 13:14 10,8 °C 10,0 °C 5,6 °C 90 % 1013,7 hPa 0,0 l/m² 0 min 0 min 32 W/m² 6,4 km/h (2 Bft) 100,00 %
16.01.2026 13:16 10,8 °C 10,0 °C 5,6 °C 90 % 1013,7 hPa 0,0 l/m² 0 min 0 min 33 W/m² 6,4 km/h (2 Bft) 100,00 %
16.01.2026 13:18 10,8 °C 10,0 °C 5,6 °C 90 % 1013,7 hPa 0,0 l/m² 0 min 0 min 33 W/m² 9,7 km/h (2 Bft) 97,87 %
16.01.2026 13:20 10,8 °C 10,0 °C 5,6 °C 90 % 1013,7 hPa 0,0 l/m² 0 min 0 min 38 W/m² 6,4 km/h (2 Bft) 100,00 %
16.01.2026 13:22 10,8 °C 10,0 °C 5,6 °C 90 % 1013,7 hPa 0,0 l/m² 0 min 0 min 40 W/m² 12,9 km/h (3 Bft) 100,00 %
16.01.2026 13:24 10,8 °C 10,0 °C 5,6 °C 90 % 1013,7 hPa 0,0 l/m² 0 min 0 min 44 W/m² 16,1 km/h (3 Bft) 100,00 %
16.01.2026 13:26 10,8 °C 10,0 °C 5,6 °C 90 % 1013,8 hPa 0,0 l/m² 0 min 0 min 52 W/m² 6,4 km/h (2 Bft) 100,00 %
16.01.2026 13:28 10,8 °C 10,0 °C 6,1 °C 91 % 1013,7 hPa 0,0 l/m² 0 min 0 min 60 W/m² 12,9 km/h (3 Bft) 100,00 %
16.01.2026 13:30 10,8 °C 10,6 °C 6,1 °C 91 % 1013,8 hPa 0,0 l/m² 0 min 0 min 67 W/m² 19,3 km/h (3 Bft) 100,00 %
16.01.2026 13:32 10,7 °C 10,6 °C 6,1 °C 91 % 1013,7 hPa 0,0 l/m² 0 min 0 min 70 W/m² 9,7 km/h (2 Bft) 97,87 %
16.01.2026 13:34 10,8 °C 10,6 °C 6,1 °C 91 % 1013,7 hPa 0,0 l/m² 0 min 0 min 66 W/m² 9,7 km/h (2 Bft) 100,00 %
16.01.2026 13:36 10,8 °C 10,6 °C 6,1 °C 91 % 1013,8 hPa 0,0 l/m² 0 min 0 min 58 W/m² 12,9 km/h (3 Bft) 100,00 %
16.01.2026 13:38 10,8 °C 10,6 °C 6,1 °C 91 % 1013,8 hPa 0,0 l/m² 0 min 0 min 50 W/m² 9,7 km/h (2 Bft) 100,00 %
16.01.2026 13:40 10,8 °C 10,6 °C 6,1 °C 91 % 1013,8 hPa 0,0 l/m² 0 min 0 min 48 W/m² 9,7 km/h (2 Bft) 100,00 %
16.01.2026 13:42 10,8 °C 10,6 °C 6,1 °C 91 % 1013,8 hPa 0,0 l/m² 0 min 0 min 46 W/m² 9,7 km/h (2 Bft) 100,00 %
16.01.2026 13:44 10,8 °C 10,6 °C 6,1 °C 91 % 1013,9 hPa 0,0 l/m² 0 min 0 min 47 W/m² 3,2 km/h (1 Bft) 100,00 %
16.01.2026 13:46 10,8 °C 10,6 °C 6,1 °C 91 % 1013,9 hPa 0,0 l/m² 0 min 0 min 49 W/m² 9,7 km/h (2 Bft) 100,00 %
16.01.2026 13:48 10,8 °C 10,6 °C 6,1 °C 91 % 1013,9 hPa 0,0 l/m² 0 min 0 min 47 W/m² 6,4 km/h (2 Bft) 100,00 %
16.01.2026 13:50 10,8 °C 10,6 °C 6,1 °C 91 % 1013,9 hPa 0,0 l/m² 0 min 0 min 43 W/m² 6,4 km/h (2 Bft) 100,00 %
16.01.2026 13:52 10,8 °C 10,6 °C 6,1 °C 91 % 1013,9 hPa 0,0 l/m² 0 min 0 min 39 W/m² 3,2 km/h (1 Bft) 97,87 %
16.01.2026 13:54 10,8 °C 10,0 °C 6,1 °C 91 % 1014,0 hPa 0,0 l/m² 0 min 0 min 41 W/m² 12,9 km/h (3 Bft) 93,48 %
16.01.2026 13:56 10,8 °C 10,0 °C 6,1 °C 91 % 1014,0 hPa 0,0 l/m² 0 min 0 min 43 W/m² 12,9 km/h (3 Bft) 97,44 %
16.01.2026 13:58 10,8 °C 10,0 °C 6,1 °C 91 % 1014,0 hPa 0,0 l/m² 0 min 0 min 41 W/m² 6,4 km/h (2 Bft) 98,00 %
16.01.2026 14:00 10,8 °C 10,0 °C 6,1 °C 91 % 1014,0 hPa 0,0 l/m² 0 min 0 min 38 W/m² 3,2 km/h (1 Bft) 96,55 %
16.01.2026 14:02 10,8 °C 10,0 °C 5,6 °C 91 % 1014,0 hPa 0,0 l/m² 0 min 2 min 39 W/m² 12,9 km/h (3 Bft) 93,62 %
16.01.2026 14:04 10,8 °C 10,0 °C 5,6 °C 91 % 1014,0 hPa 0,2 l/m² 0 min 0 min 39 W/m² 9,7 km/h (2 Bft) 94,74 %
16.01.2026 14:06 10,8 °C 10,0 °C 5,6 °C 91 % 1014,0 hPa 0,0 l/m² 0 min 0 min 35 W/m² 6,4 km/h (2 Bft) 93,62 %
16.01.2026 14:08 10,8 °C 10,0 °C 5,6 °C 91 % 1014,0 hPa 0,0 l/m² 0 min 0 min 31 W/m² 12,9 km/h (3 Bft) 93,62 %
16.01.2026 14:10 10,8 °C 10,0 °C 5,6 °C 91 % 1014,0 hPa 0,0 l/m² 0 min 0 min 30 W/m² 6,4 km/h (2 Bft) 95,74 %
16.01.2026 14:12 10,8 °C 10,0 °C 5,6 °C 91 % 1014,1 hPa 0,0 l/m² 0 min 0 min 35 W/m² 9,7 km/h (2 Bft) 95,65 %
16.01.2026 14:14 10,8 °C 10,0 °C 5,6 °C 91 % 1014,1 hPa 0,0 l/m² 0 min 0 min 36 W/m² 6,4 km/h (2 Bft) 95,74 %
16.01.2026 14:16 10,8 °C 10,0 °C 5,6 °C 91 % 1014,1 hPa 0,0 l/m² 0 min 0 min 39 W/m² 6,4 km/h (2 Bft) 93,48 %
16.01.2026 14:18 10,8 °C 10,0 °C 5,6 °C 92 % 1014,1 hPa 0,0 l/m² 0 min 0 min 39 W/m² 6,4 km/h (2 Bft) 96,43 %
16.01.2026 14:20 10,8 °C 10,0 °C 5,6 °C 92 % 1014,1 hPa 0,0 l/m² 0 min 0 min 39 W/m² 6,4 km/h (2 Bft) 93,33 %
16.01.2026 14:22 10,8 °C 10,0 °C 5,6 °C 92 % 1014,0 hPa 0,0 l/m² 0 min 0 min 44 W/m² 3,2 km/h (1 Bft) 87,50 %
16.01.2026 14:24 10,8 °C 10,0 °C 5,6 °C 92 % 1014,0 hPa 0,0 l/m² 0 min 0 min 45 W/m² 3,2 km/h (1 Bft) 93,62 %
16.01.2026 14:26 10,8 °C 10,0 °C 5,6 °C 92 % 1014,1 hPa 0,0 l/m² 0 min 0 min 40 W/m² 3,2 km/h (1 Bft) 91,49 %
16.01.2026 14:28 10,7 °C 10,0 °C 5,6 °C 92 % 1014,0 hPa 0,0 l/m² 0 min 0 min 40 W/m² 6,4 km/h (2 Bft) 94,64 %
16.01.2026 14:30 10,7 °C 10,0 °C 5,6 °C 92 % 1014,0 hPa 0,0 l/m² 0 min 0 min 38 W/m² 6,4 km/h (2 Bft) 92,11 %
16.01.2026 14:32 10,7 °C 10,0 °C 5,6 °C 92 % 1014,0 hPa 0,0 l/m² 0 min 0 min 32 W/m² 12,9 km/h (3 Bft) 93,62 %
16.01.2026 14:34 10,7 °C 10,0 °C 5,6 °C 92 % 1014,0 hPa 0,0 l/m² 0 min 0 min 32 W/m² 6,4 km/h (2 Bft) 95,65 %
16.01.2026 14:36 10,7 °C 10,0 °C 5,6 °C 92 % 1014,0 hPa 0,0 l/m² 0 min 0 min 27 W/m² 12,9 km/h (3 Bft) 98,21 %
16.01.2026 14:38 10,7 °C 10,0 °C 5,6 °C 92 % 1014,1 hPa 0,0 l/m² 0 min 0 min 31 W/m² 16,1 km/h (3 Bft) 95,56 %
16.01.2026 14:40 10,6 °C 10,0 °C 5,6 °C 92 % 1014,1 hPa 0,0 l/m² 0 min 0 min 42 W/m² 3,2 km/h (1 Bft) 95,00 %
16.01.2026 14:42 10,6 °C 10,0 °C 5,6 °C 92 % 1014,1 hPa 0,0 l/m² 0 min 0 min 52 W/m² 6,4 km/h (2 Bft) 97,87 %
16.01.2026 14:44 10,6 °C 10,0 °C 5,6 °C 92 % 1014,1 hPa 0,0 l/m² 0 min 0 min 57 W/m² 9,7 km/h (2 Bft) 97,87 %
16.01.2026 14:46 10,6 °C 10,0 °C 5,6 °C 92 % 1014,1 hPa 0,0 l/m² 0 min 0 min 60 W/m² 9,7 km/h (2 Bft) 97,83 %
16.01.2026 14:48 10,6 °C 10,0 °C 5,6 °C 92 % 1014,1 hPa 0,0 l/m² 0 min 0 min 59 W/m² 12,9 km/h (3 Bft) 97,87 %
16.01.2026 14:50 10,6 °C 10,0 °C 5,6 °C 93 % 1014,1 hPa 0,0 l/m² 0 min 0 min 55 W/m² 6,4 km/h (2 Bft) 96,43 %
16.01.2026 14:52 10,6 °C 10,0 °C 5,6 °C 93 % 1014,1 hPa 0,0 l/m² 0 min 0 min 50 W/m² 12,9 km/h (3 Bft) 95,56 %
16.01.2026 14:54 10,5 °C 10,0 °C 5,6 °C 93 % 1014,1 hPa 0,0 l/m² 0 min 0 min 52 W/m² 16,1 km/h (3 Bft) 97,50 %
16.01.2026 14:56 10,5 °C 10,0 °C 5,6 °C 93 % 1014,0 hPa 0,0 l/m² 0 min 0 min 52 W/m² 12,9 km/h (3 Bft) 97,87 %
16.01.2026 14:58 10,5 °C 10,0 °C 5,6 °C 93 % 1014,1 hPa 0,0 l/m² 0 min 0 min 47 W/m² 6,4 km/h (2 Bft) 93,48 %
16.01.2026 15:00 10,4 °C 10,0 °C 5,6 °C 93 % 1014,1 hPa 0,0 l/m² 0 min 0 min 46 W/m² 6,4 km/h (2 Bft) 95,65 %
16.01.2026 15:02 10,4 °C 10,0 °C 5,6 °C 93 % 1014,1 hPa 0,0 l/m² 0 min 0 min 49 W/m² 6,4 km/h (2 Bft) 95,74 %
16.01.2026 15:04 10,4 °C 10,0 °C 5,6 °C 93 % 1014,1 hPa 0,0 l/m² 0 min 0 min 53 W/m² 6,4 km/h (2 Bft) 98,21 %
16.01.2026 15:06 10,4 °C 10,0 °C 5,6 °C 93 % 1014,1 hPa 0,0 l/m² 0 min 0 min 54 W/m² 6,4 km/h (2 Bft) 95,00 %
16.01.2026 15:08 10,4 °C 10,0 °C 5,6 °C 93 % 1014,1 hPa 0,0 l/m² 0 min 0 min 54 W/m² 16,1 km/h (3 Bft) 98,15 %
16.01.2026 15:10 10,4 °C 10,0 °C 5,6 °C 93 % 1014,1 hPa 0,0 l/m² 0 min 0 min 53 W/m² 12,9 km/h (3 Bft) 100,00 %
16.01.2026 15:12 10,4 °C 10,0 °C 5,6 °C 93 % 1014,2 hPa 0,0 l/m² 0 min 0 min 53 W/m² 6,4 km/h (2 Bft) 100,00 %
16.01.2026 15:14 10,4 °C 10,0 °C 5,6 °C 93 % 1014,1 hPa 0,0 l/m² 0 min 0 min 51 W/m² 16,1 km/h (3 Bft) 97,87 %
16.01.2026 15:16 10,4 °C 10,0 °C 5,6 °C 93 % 1014,2 hPa 0,0 l/m² 0 min 0 min 48 W/m² 12,9 km/h (3 Bft) 100,00 %
16.01.2026 15:18 10,4 °C 9,4 °C 5,6 °C 93 % 1014,2 hPa 0,0 l/m² 0 min 0 min 47 W/m² 12,9 km/h (3 Bft) 100,00 %
16.01.2026 15:20 10,4 °C 9,4 °C 5,6 °C 93 % 1014,2 hPa 0,0 l/m² 0 min 0 min 45 W/m² 12,9 km/h (3 Bft) 100,00 %
16.01.2026 15:22 10,3 °C 9,4 °C 5,6 °C 93 % 1014,2 hPa 0,0 l/m² 0 min 0 min 44 W/m² 16,1 km/h (3 Bft) 97,83 %
16.01.2026 15:24 10,3 °C 9,4 °C 5,6 °C 93 % 1014,2 hPa 0,0 l/m² 0 min 0 min 44 W/m² 12,9 km/h (3 Bft) 100,00 %
16.01.2026 15:26 10,3 °C 9,4 °C 5,6 °C 94 % 1014,2 hPa 0,0 l/m² 0 min 0 min 44 W/m² 16,1 km/h (3 Bft) 97,87 %
16.01.2026 15:28 10,3 °C 9,4 °C 5,6 °C 94 % 1014,2 hPa 0,0 l/m² 0 min 0 min 44 W/m² 6,4 km/h (2 Bft) 100,00 %
16.01.2026 15:30 10,3 °C 9,4 °C 5,6 °C 94 % 1014,2 hPa 0,0 l/m² 0 min 0 min 42 W/m² 12,9 km/h (3 Bft) 97,87 %
16.01.2026 15:32 10,3 °C 9,4 °C 5,6 °C 94 % 1014,3 hPa 0,0 l/m² 0 min 0 min 41 W/m² 19,3 km/h (3 Bft) 97,83 %
16.01.2026 15:34 10,3 °C 9,4 °C 6,1 °C 94 % 1014,3 hPa 0,0 l/m² 0 min 0 min 39 W/m² 12,9 km/h (3 Bft) 100,00 %
16.01.2026 15:36 10,3 °C 9,4 °C 5,6 °C 94 % 1014,3 hPa 0,0 l/m² 0 min 0 min 37 W/m² 12,9 km/h (3 Bft) 97,87 %
16.01.2026 15:38 10,3 °C 9,4 °C 5,6 °C 94 % 1014,3 hPa 0,0 l/m² 0 min 0 min 34 W/m² 9,7 km/h (2 Bft) 100,00 %
16.01.2026 15:40 10,3 °C 9,4 °C 5,6 °C 94 % 1014,3 hPa 0,0 l/m² 0 min 0 min 31 W/m² 16,1 km/h (3 Bft) 100,00 %
16.01.2026 15:42 10,2 °C 9,4 °C 5,6 °C 94 % 1014,4 hPa 0,0 l/m² 0 min 0 min 26 W/m² 12,9 km/h (3 Bft) 100,00 %
16.01.2026 15:44 10,2 °C 9,4 °C 5,6 °C 94 % 1014,3 hPa 0,0 l/m² 0 min 0 min 23 W/m² 12,9 km/h (3 Bft) 100,00 %
16.01.2026 15:46 10,2 °C 9,4 °C 5,6 °C 94 % 1014,4 hPa 0,0 l/m² 0 min 0 min 26 W/m² 6,4 km/h (2 Bft) 97,87 %
16.01.2026 15:48 10,2 °C 9,4 °C 5,6 °C 94 % 1014,4 hPa 0,0 l/m² 0 min 0 min 26 W/m² 12,9 km/h (3 Bft) 100,00 %
16.01.2026 15:50 10,2 °C 9,4 °C 5,6 °C 94 % 1014,4 hPa 0,0 l/m² 0 min 0 min 25 W/m² 22,5 km/h (4 Bft) 97,87 %
16.01.2026 15:52 10,2 °C 9,4 °C 5,6 °C 94 % 1014,4 hPa 0,0 l/m² 0 min 0 min 25 W/m² 12,9 km/h (3 Bft) 100,00 %
16.01.2026 15:54 10,2 °C 9,4 °C 5,6 °C 94 % 1014,5 hPa 0,0 l/m² 0 min 0 min 26 W/m² 9,7 km/h (2 Bft) 97,73 %
16.01.2026 15:56 10,2 °C 9,4 °C 5,6 °C 94 % 1014,5 hPa 0,0 l/m² 0 min 0 min 26 W/m² 16,1 km/h (3 Bft) 98,08 %
16.01.2026 15:58 10,2 °C 9,4 °C 5,6 °C 94 % 1014,5 hPa 0,0 l/m² 0 min 0 min 26 W/m² 9,7 km/h (2 Bft) 98,00 %
16.01.2026 16:00 10,2 °C 9,4 °C 5,6 °C 94 % 1014,5 hPa 0,0 l/m² 0 min 0 min 26 W/m² 12,9 km/h (3 Bft) 93,33 %
16.01.2026 16:02 10,1 °C 9,4 °C 5,6 °C 94 % 1014,5 hPa 0,0 l/m² 0 min 0 min 25 W/m² 9,7 km/h (2 Bft) 95,56 %
16.01.2026 16:04 10,1 °C 9,4 °C 5,6 °C 94 % 1014,5 hPa 0,0 l/m² 0 min 0 min 24 W/m² 12,9 km/h (3 Bft) 97,67 %
16.01.2026 16:08 10,1 °C 9,4 °C 5,6 °C 94 % 1014,5 hPa 0,0 l/m² 0 min 0 min 21 W/m² 12,9 km/h (3 Bft) 98,00 %
16.01.2026 16:10 10,1 °C 9,4 °C 5,6 °C 94 % 1014,6 hPa 0,0 l/m² 0 min 0 min 19 W/m² 12,9 km/h (3 Bft) 97,50 %
16.01.2026 16:12 10,1 °C 9,4 °C 5,6 °C 94 % 1014,5 hPa 0,0 l/m² 0 min 0 min 19 W/m² 12,9 km/h (3 Bft) 97,87 %
16.01.2026 16:14 10,1 °C 9,4 °C 5,6 °C 94 % 1014,5 hPa 0,0 l/m² 0 min 0 min 19 W/m² 12,9 km/h (3 Bft) 97,87 %
16.01.2026 16:16 10,1 °C 9,4 °C 5,6 °C 94 % 1014,5 hPa 0,0 l/m² 0 min 0 min 18 W/m² 12,9 km/h (3 Bft) 96,36 %
16.01.2026 16:18 10,1 °C 9,4 °C 5,6 °C 94 % 1014,6 hPa 0,0 l/m² 0 min 0 min 18 W/m² 12,9 km/h (3 Bft) 95,65 %
16.01.2026 16:20 10,1 °C 9,4 °C 5,6 °C 94 % 1014,6 hPa 0,0 l/m² 0 min 0 min 14 W/m² 12,9 km/h (3 Bft) 97,44 %
16.01.2026 16:22 10,0 °C 9,4 °C 5,6 °C 94 % 1014,6 hPa 0,0 l/m² 0 min 0 min 12 W/m² 12,9 km/h (3 Bft) 94,74 %
16.01.2026 16:24 10,0 °C 9,4 °C 5,6 °C 94 % 1014,7 hPa 0,0 l/m² 0 min 0 min 12 W/m² 12,9 km/h (3 Bft) 100,00 %
16.01.2026 16:26 10,0 °C 9,4 °C 5,6 °C 94 % 1014,7 hPa 0,0 l/m² 0 min 0 min 11 W/m² 12,9 km/h (3 Bft) 97,87 %
16.01.2026 16:28 10,0 °C 9,4 °C 5,6 °C 94 % 1014,7 hPa 0,0 l/m² 0 min 0 min 11 W/m² 16,1 km/h (3 Bft) 97,87 %
16.01.2026 16:30 9,9 °C 8,9 °C 5,6 °C 94 % 1014,7 hPa 0,0 l/m² 0 min 0 min 10 W/m² 9,7 km/h (2 Bft) 100,00 %
16.01.2026 16:32 9,9 °C 8,9 °C 5,6 °C 94 % 1014,7 hPa 0,0 l/m² 0 min 0 min 8 W/m² 6,4 km/h (2 Bft) 98,25 %
16.01.2026 16:34 9,9 °C 8,9 °C 5,6 °C 95 % 1014,7 hPa 0,0 l/m² 0 min 0 min 7 W/m² 6,4 km/h (2 Bft) 97,30 %
16.01.2026 16:36 9,9 °C 8,9 °C 5,6 °C 95 % 1014,7 hPa 0,0 l/m² 0 min 0 min 5 W/m² 3,2 km/h (1 Bft) 100,00 %
16.01.2026 16:38 9,9 °C 8,9 °C 5,6 °C 95 % 1014,8 hPa 0,0 l/m² 0 min 0 min 1 W/m² 6,4 km/h (2 Bft) 97,87 %
16.01.2026 16:40 9,9 °C 8,9 °C 5,6 °C 95 % 1014,8 hPa 0,0 l/m² 0 min 0 min 0 W/m² 3,2 km/h (1 Bft) 98,25 %
16.01.2026 16:42 9,9 °C 8,9 °C 5,6 °C 95 % 1014,9 hPa 0,0 l/m² 0 min 0 min 0 W/m² 0,0 km/h (0 Bft) 95,56 %
16.01.2026 16:44 9,9 °C 8,9 °C 5,0 °C 95 % 1014,9 hPa 0,0 l/m² 0 min 0 min 0 W/m² 3,2 km/h (1 Bft) 100,00 %
16.01.2026 16:46 9,9 °C 8,9 °C 5,0 °C 95 % 1014,9 hPa 0,0 l/m² 0 min 0 min 0 W/m² 0,0 km/h (0 Bft) 95,00 %
16.01.2026 16:48 9,8 °C 8,9 °C 5,0 °C 95 % 1015,0 hPa 0,0 l/m² 0 min 2 min 0 W/m² 3,2 km/h (1 Bft) 97,87 %
16.01.2026 16:50 9,8 °C 8,9 °C 5,0 °C 95 % 1014,9 hPa 0,5 l/m² 0 min 2 min 0 W/m² 12,9 km/h (3 Bft) 97,87 %
16.01.2026 16:52 9,9 °C 8,9 °C 5,0 °C 95 % 1014,9 hPa 0,0 l/m² 0 min 2 min 0 W/m² 0,0 km/h (0 Bft) 95,74 %
16.01.2026 16:54 9,9 °C 8,9 °C 5,0 °C 95 % 1014,9 hPa 0,0 l/m² 0 min 2 min 0 W/m² 3,2 km/h (1 Bft) 97,96 %
16.01.2026 16:56 9,9 °C 8,9 °C 5,0 °C 95 % 1014,9 hPa 0,0 l/m² 0 min 0 min 0 W/m² 0,0 km/h (0 Bft) 95,56 %
16.01.2026 16:58 9,9 °C 8,9 °C 5,0 °C 95 % 1014,9 hPa 0,0 l/m² 0 min 0 min 0 W/m² 3,2 km/h (1 Bft) 94,74 %
16.01.2026 17:00 9,9 °C 8,9 °C 5,0 °C 95 % 1014,9 hPa 0,0 l/m² 0 min 0 min 0 W/m² 0,0 km/h (0 Bft) 100,00 %
16.01.2026 17:02 9,9 °C 8,9 °C 5,0 °C 95 % 1015,0 hPa 0,0 l/m² 0 min 0 min 0 W/m² 0,0 km/h (0 Bft) 91,49 %
16.01.2026 17:04 9,9 °C 8,9 °C 5,0 °C 95 % 1015,0 hPa 0,0 l/m² 0 min 0 min 0 W/m² 3,2 km/h (1 Bft) 95,83 %
16.01.2026 17:06 9,9 °C 8,9 °C 5,0 °C 95 % 1014,9 hPa 0,0 l/m² 0 min 0 min 0 W/m² 0,0 km/h (0 Bft) 93,18 %
16.01.2026 17:08 9,9 °C 8,9 °C 5,0 °C 95 % 1014,9 hPa 0,0 l/m² 0 min 0 min 0 W/m² 3,2 km/h (1 Bft) 95,74 %
16.01.2026 17:10 9,9 °C 8,9 °C 5,0 °C 95 % 1015,0 hPa 0,0 l/m² 0 min 0 min 0 W/m² 0,0 km/h (0 Bft) 95,56 %
16.01.2026 17:12 9,9 °C 8,9 °C 5,0 °C 95 % 1014,9 hPa 0,0 l/m² 0 min 0 min 0 W/m² 3,2 km/h (1 Bft) 94,12 %
16.01.2026 17:14 9,9 °C 8,9 °C 5,0 °C 95 % 1015,0 hPa 0,0 l/m² 0 min 0 min 0 W/m² 0,0 km/h (0 Bft) 95,24 %
16.01.2026 17:16 9,9 °C 8,3 °C 4,4 °C 95 % 1014,9 hPa 0,0 l/m² 0 min 0 min 0 W/m² 0,0 km/h (0 Bft) 96,15 %
16.01.2026 17:18 9,8 °C 8,3 °C 4,4 °C 95 % 1014,9 hPa 0,0 l/m² 0 min 0 min 0 W/m² 0,0 km/h (0 Bft) 91,30 %
16.01.2026 17:20 9,8 °C 8,3 °C 4,4 °C 95 % 1014,9 hPa 0,0 l/m² 0 min 0 min 0 W/m² 0,0 km/h (0 Bft) 95,65 %
16.01.2026 17:22 9,8 °C 8,3 °C 4,4 °C 95 % 1015,0 hPa 0,0 l/m² 0 min 0 min 0 W/m² 0,0 km/h (0 Bft) 95,83 %
16.01.2026 17:24 9,8 °C 8,3 °C 4,4 °C 95 % 1015,1 hPa 0,0 l/m² 0 min 0 min 0 W/m² 0,0 km/h (0 Bft) 95,65 %
16.01.2026 17:26 9,8 °C 8,3 °C 4,4 °C 95 % 1015,1 hPa 0,0 l/m² 0 min 0 min 0 W/m² 0,0 km/h (0 Bft) 95,83 %
16.01.2026 17:28 9,7 °C 8,3 °C 4,4 °C 95 % 1015,0 hPa 0,0 l/m² 0 min 0 min 0 W/m² 0,0 km/h (0 Bft) 95,65 %
16.01.2026 17:30 9,7 °C 8,3 °C 4,4 °C 95 % 1015,1 hPa 0,0 l/m² 0 min 0 min 0 W/m² 0,0 km/h (0 Bft) 95,74 %
16.01.2026 17:32 9,7 °C 8,3 °C 4,4 °C 95 % 1015,2 hPa 0,0 l/m² 0 min 0 min 0 W/m² 0,0 km/h (0 Bft) 95,74 %
16.01.2026 17:34 9,7 °C 8,3 °C 4,4 °C 95 % 1015,1 hPa 0,0 l/m² 0 min 0 min 0 W/m² 0,0 km/h (0 Bft) 93,62 %
16.01.2026 17:36 9,7 °C 8,3 °C 4,4 °C 95 % 1015,2 hPa 0,0 l/m² 0 min 0 min 0 W/m² 0,0 km/h (0 Bft) 93,62 %
16.01.2026 17:38 9,6 °C 8,3 °C 4,4 °C 95 % 1015,3 hPa 0,0 l/m² 0 min 0 min 0 W/m² 0,0 km/h (0 Bft) 95,92 %
16.01.2026 17:40 9,6 °C 8,3 °C 4,4 °C 95 % 1015,3 hPa 0,0 l/m² 0 min 0 min 0 W/m² 0,0 km/h (0 Bft) 100,00 %
16.01.2026 17:42 9,6 °C 8,3 °C 4,4 °C 95 % 1015,3 hPa 0,0 l/m² 0 min 0 min 0 W/m² 0,0 km/h (0 Bft) 100,00 %
16.01.2026 17:44 9,6 °C 8,3 °C 4,4 °C 95 % 1015,2 hPa 0,0 l/m² 0 min 0 min 0 W/m² 0,0 km/h (0 Bft) 100,00 %
16.01.2026 17:46 9,6 °C 8,3 °C 4,4 °C 95 % 1015,3 hPa 0,0 l/m² 0 min 0 min 0 W/m² 0,0 km/h (0 Bft) 98,28 %
16.01.2026 17:48 9,6 °C 8,3 °C 4,4 °C 95 % 1015,3 hPa 0,0 l/m² 0 min 0 min 0 W/m² 0,0 km/h (0 Bft) 95,65 %
16.01.2026 17:50 9,6 °C 8,3 °C 4,4 °C 95 % 1015,3 hPa 0,0 l/m² 0 min 0 min 0 W/m² 3,2 km/h (1 Bft) 95,92 %
16.01.2026 17:52 9,5 °C 8,3 °C 4,4 °C 95 % 1015,4 hPa 0,0 l/m² 0 min 0 min 0 W/m² 0,0 km/h (0 Bft) 97,87 %
16.01.2026 17:54 9,5 °C 8,3 °C 4,4 °C 95 % 1015,3 hPa 0,0 l/m² 0 min 0 min 0 W/m² 0,0 km/h (0 Bft) 97,14 %
16.01.2026 17:56 9,5 °C 8,3 °C 4,4 °C 95 % 1015,4 hPa 0,2 l/m² 0 min 0 min 0 W/m² 0,0 km/h (0 Bft) 95,65 %
16.01.2026 17:58 9,5 °C 8,3 °C 4,4 °C 95 % 1015,4 hPa 0,0 l/m² 0 min 2 min 0 W/m² 0,0 km/h (0 Bft) 94,92 %
16.01.2026 18:00 9,5 °C 8,3 °C 4,4 °C 95 % 1015,4 hPa 0,0 l/m² 0 min 2 min 0 W/m² 0,0 km/h (0 Bft) 95,74 %
16.01.2026 18:02 9,5 °C 8,3 °C 4,4 °C 95 % 1015,5 hPa 0,0 l/m² 0 min 2 min 0 W/m² 0,0 km/h (0 Bft) 97,87 %
16.01.2026 18:04 9,4 °C 8,3 °C 4,4 °C 95 % 1015,5 hPa 0,2 l/m² 0 min 2 min 0 W/m² 0,0 km/h (0 Bft) 97,83 %
16.01.2026 18:10 9,4 °C 8,3 °C 4,4 °C 95 % 1015,5 hPa 0,0 l/m² 0 min 5 min 0 W/m² 3,2 km/h (1 Bft) 96,90 %
16.01.2026 18:12 9,4 °C 8,3 °C 4,4 °C 95 % 1015,5 hPa 0,2 l/m² 0 min 2 min 0 W/m² 0,0 km/h (0 Bft) 98,15 %
16.01.2026 18:16 9,5 °C 8,3 °C 4,4 °C 96 % 1015,6 hPa 0,0 l/m² 0 min 4 min 0 W/m² 3,2 km/h (1 Bft) 97,87 %
16.01.2026 18:18 9,5 °C 8,3 °C 4,4 °C 96 % 1015,5 hPa 0,2 l/m² 0 min 2 min 0 W/m² 0,0 km/h (0 Bft) 97,92 %
16.01.2026 18:20 9,5 °C 8,3 °C 5,0 °C 96 % 1015,5 hPa 0,0 l/m² 0 min 2 min 0 W/m² 3,2 km/h (1 Bft) 98,00 %
16.01.2026 18:22 9,5 °C 8,3 °C 5,0 °C 96 % 1015,5 hPa 0,0 l/m² 0 min 2 min 0 W/m² 0,0 km/h (0 Bft) 100,00 %
16.01.2026 18:24 9,5 °C 8,3 °C 5,0 °C 96 % 1015,5 hPa 0,0 l/m² 0 min 2 min 0 W/m² 0,0 km/h (0 Bft) 100,00 %
16.01.2026 18:26 9,5 °C 8,3 °C 5,0 °C 96 % 1015,5 hPa 0,0 l/m² 0 min 2 min 0 W/m² 0,0 km/h (0 Bft) 100,00 %
16.01.2026 18:28 9,5 °C 8,3 °C 5,0 °C 96 % 1015,6 hPa 0,2 l/m² 0 min 2 min 0 W/m² 0,0 km/h (0 Bft) 97,83 %
16.01.2026 18:30 9,5 °C 8,3 °C 5,0 °C 96 % 1015,6 hPa 0,0 l/m² 0 min 2 min 0 W/m² 0,0 km/h (0 Bft) 100,00 %
16.01.2026 18:32 9,5 °C 8,3 °C 5,0 °C 96 % 1015,6 hPa 0,0 l/m² 0 min 2 min 0 W/m² 0,0 km/h (0 Bft) 95,74 %
16.01.2026 18:34 9,5 °C 8,3 °C 5,0 °C 96 % 1015,6 hPa 0,0 l/m² 0 min 2 min 0 W/m² 0,0 km/h (0 Bft) 100,00 %
16.01.2026 18:36 9,5 °C 8,3 °C 5,0 °C 96 % 1015,6 hPa 0,2 l/m² 0 min 2 min 0 W/m² 0,0 km/h (0 Bft) 100,00 %
16.01.2026 18:38 9,5 °C 8,3 °C 5,0 °C 96 % 1015,6 hPa 0,0 l/m² 0 min 2 min 0 W/m² 0,0 km/h (0 Bft) 100,00 %
16.01.2026 18:40 9,5 °C 8,3 °C 5,0 °C 96 % 1015,7 hPa 0,0 l/m² 0 min 0 min 0 W/m² 3,2 km/h (1 Bft) 100,00 %
16.01.2026 18:42 9,5 °C 8,3 °C 5,0 °C 96 % 1015,7 hPa 0,0 l/m² 0 min 2 min 0 W/m² 0,0 km/h (0 Bft) 100,00 %
16.01.2026 18:44 9,5 °C 8,3 °C 5,0 °C 96 % 1015,8 hPa 0,0 l/m² 0 min 0 min 0 W/m² 0,0 km/h (0 Bft) 100,00 %
16.01.2026 18:46 9,5 °C 8,3 °C 5,0 °C 96 % 1015,8 hPa 0,0 l/m² 0 min 0 min 0 W/m² 0,0 km/h (0 Bft) 97,87 %
16.01.2026 18:48 9,5 °C 8,3 °C 5,0 °C 96 % 1015,9 hPa 0,0 l/m² 0 min 2 min 0 W/m² 3,2 km/h (1 Bft) 100,00 %
16.01.2026 18:50 9,5 °C 8,3 °C 5,0 °C 96 % 1015,9 hPa 0,0 l/m² 0 min 0 min 0 W/m² 0,0 km/h (0 Bft) 100,00 %
16.01.2026 18:52 9,5 °C 8,3 °C 5,0 °C 96 % 1015,9 hPa 0,0 l/m² 0 min 2 min 0 W/m² 0,0 km/h (0 Bft) 100,00 %
16.01.2026 18:54 9,5 °C 8,3 °C 5,0 °C 96 % 1015,9 hPa 0,0 l/m² 0 min 0 min 0 W/m² 0,0 km/h (0 Bft) 100,00 %
16.01.2026 18:56 9,5 °C 8,3 °C 5,0 °C 96 % 1015,9 hPa 0,0 l/m² 0 min 0 min 0 W/m² 3,2 km/h (1 Bft) 97,87 %
16.01.2026 18:58 9,5 °C 8,3 °C 5,0 °C 96 % 1015,9 hPa 0,0 l/m² 0 min 0 min 0 W/m² 0,0 km/h (0 Bft) 100,00 %
16.01.2026 19:00 9,5 °C 8,3 °C 5,0 °C 96 % 1015,9 hPa 0,0 l/m² 0 min 0 min 0 W/m² 0,0 km/h (0 Bft) 100,00 %
16.01.2026 19:02 9,4 °C 8,3 °C 5,0 °C 96 % 1015,9 hPa 0,0 l/m² 0 min 0 min 0 W/m² 0,0 km/h (0 Bft) 100,00 %
16.01.2026 19:04 9,4 °C 8,3 °C 5,0 °C 96 % 1016,0 hPa 0,0 l/m² 0 min 0 min 0 W/m² 3,2 km/h (1 Bft) 100,00 %
16.01.2026 19:06 9,4 °C 8,3 °C 5,0 °C 96 % 1016,0 hPa 0,2 l/m² 0 min 0 min 0 W/m² 0,0 km/h (0 Bft) 100,00 %
16.01.2026 19:08 9,4 °C 8,3 °C 5,0 °C 96 % 1015,9 hPa 0,0 l/m² 0 min 2 min 0 W/m² 0,0 km/h (0 Bft) 100,00 %
16.01.2026 19:12 9,4 °C 8,3 °C 5,0 °C 96 % 1016,0 hPa 0,0 l/m² 0 min 4 min 0 W/m² 3,2 km/h (1 Bft) 99,06 %
16.01.2026 19:16 9,3 °C 8,3 °C 4,4 °C 96 % 1016,0 hPa 0,0 l/m² 0 min 0 min 0 W/m² 3,2 km/h (1 Bft) 100,00 %
16.01.2026 19:18 9,3 °C 8,3 °C 4,4 °C 96 % 1016,0 hPa 0,0 l/m² 0 min 0 min 0 W/m² 0,0 km/h (0 Bft) 97,83 %
16.01.2026 19:20 9,3 °C 7,8 °C 4,4 °C 96 % 1015,9 hPa 0,0 l/m² 0 min 0 min 0 W/m² 0,0 km/h (0 Bft) 97,87 %
16.01.2026 19:22 9,3 °C 7,8 °C 4,4 °C 96 % 1016,0 hPa 0,0 l/m² 0 min 0 min 0 W/m² 0,0 km/h (0 Bft) 100,00 %
16.01.2026 19:24 9,3 °C 7,8 °C 4,4 °C 96 % 1016,0 hPa 0,0 l/m² 0 min 0 min 0 W/m² 0,0 km/h (0 Bft) 95,74 %
16.01.2026 19:26 9,3 °C 7,8 °C 4,4 °C 96 % 1016,0 hPa 0,0 l/m² 0 min 0 min 0 W/m² 0,0 km/h (0 Bft) 97,87 %
16.01.2026 19:28 9,3 °C 7,8 °C 4,4 °C 96 % 1016,1 hPa 0,0 l/m² 0 min 0 min 0 W/m² 0,0 km/h (0 Bft) 97,87 %
16.01.2026 19:30 9,2 °C 7,8 °C 4,4 °C 96 % 1016,1 hPa 0,0 l/m² 0 min 0 min 0 W/m² 0,0 km/h (0 Bft) 97,83 %
16.01.2026 19:32 9,2 °C 7,8 °C 4,4 °C 96 % 1016,1 hPa 0,0 l/m² 0 min 0 min 0 W/m² 0,0 km/h (0 Bft) 93,62 %
16.01.2026 19:34 9,2 °C 7,8 °C 4,4 °C 96 % 1016,1 hPa 0,0 l/m² 0 min 0 min 0 W/m² 0,0 km/h (0 Bft) 97,83 %
16.01.2026 19:36 9,2 °C 7,8 °C 4,4 °C 96 % 1016,1 hPa 0,0 l/m² 0 min 0 min 0 W/m² 0,0 km/h (0 Bft) 98,28 %
16.01.2026 19:38 9,2 °C 7,8 °C 4,4 °C 96 % 1016,2 hPa 0,0 l/m² 0 min 0 min 0 W/m² 0,0 km/h (0 Bft) 97,87 %
16.01.2026 19:40 9,2 °C 7,8 °C 4,4 °C 96 % 1016,2 hPa 0,0 l/m² 0 min 2 min 0 W/m² 3,2 km/h (1 Bft) 93,48 %
16.01.2026 19:42 9,1 °C 7,8 °C 4,4 °C 96 % 1016,1 hPa 0,0 l/m² 0 min 0 min 0 W/m² 3,2 km/h (1 Bft) 95,74 %
16.01.2026 19:44 9,1 °C 7,8 °C 4,4 °C 96 % 1016,1 hPa 0,0 l/m² 0 min 0 min 0 W/m² 3,2 km/h (1 Bft) 94,44 %
16.01.2026 19:46 9,1 °C 7,8 °C 4,4 °C 97 % 1016,1 hPa 0,2 l/m² 0 min 0 min 0 W/m² 3,2 km/h (1 Bft) 91,49 %
16.01.2026 19:48 9,1 °C 7,8 °C 4,4 °C 97 % 1016,1 hPa 0,0 l/m² 0 min 0 min 0 W/m² 3,2 km/h (1 Bft) 92,98 %
16.01.2026 19:50 9,1 °C 7,8 °C 4,4 °C 97 % 1016,2 hPa 0,0 l/m² 0 min 0 min 0 W/m² 3,2 km/h (1 Bft) 91,30 %
16.01.2026 19:52 9,1 °C 7,8 °C 4,4 °C 97 % 1016,2 hPa 0,0 l/m² 0 min 0 min 0 W/m² 3,2 km/h (1 Bft) 93,44 %
16.01.2026 19:54 9,1 °C 7,8 °C 4,4 °C 97 % 1016,2 hPa 0,0 l/m² 0 min 0 min 0 W/m² 3,2 km/h (1 Bft) 93,62 %
16.01.2026 19:56 9,1 °C 7,8 °C 4,4 °C 97 % 1016,3 hPa 0,0 l/m² 0 min 0 min 0 W/m² 3,2 km/h (1 Bft) 91,49 %
16.01.2026 19:58 9,0 °C 7,8 °C 4,4 °C 96 % 1016,3 hPa 0,0 l/m² 0 min 0 min 0 W/m² 0,0 km/h (0 Bft) 91,07 %
16.01.2026 20:00 9,0 °C 7,8 °C 4,4 °C 96 % 1016,3 hPa 0,0 l/m² 0 min 0 min 0 W/m² 3,2 km/h (1 Bft) 93,33 %
16.01.2026 20:02 8,9 °C 7,8 °C 4,4 °C 96 % 1016,3 hPa 0,0 l/m² 0 min 0 min 0 W/m² 3,2 km/h (1 Bft) 93,48 %
16.01.2026 20:04 8,9 °C 7,8 °C 4,4 °C 96 % 1016,2 hPa 0,0 l/m² 0 min 0 min 0 W/m² 0,0 km/h (0 Bft) 91,49 %
16.01.2026 20:08 8,9 °C 7,8 °C 4,4 °C 96 % 1016,3 hPa 0,0 l/m² 0 min 0 min 0 W/m² 3,2 km/h (1 Bft) 94,74 %
16.01.2026 20:10 8,9 °C 7,8 °C 4,4 °C 97 % 1016,3 hPa 0,0 l/m² 0 min 0 min 0 W/m² 0,0 km/h (0 Bft) 95,92 %
16.01.2026 20:12 8,9 °C 7,8 °C 4,4 °C 97 % 1016,2 hPa 0,0 l/m² 0 min 0 min 0 W/m² 0,0 km/h (0 Bft) 95,74 %
16.01.2026 20:14 8,8 °C 7,8 °C 4,4 °C 97 % 1016,2 hPa 0,0 l/m² 0 min 0 min 0 W/m² 0,0 km/h (0 Bft) 97,30 %
16.01.2026 20:16 8,8 °C 7,8 °C 4,4 °C 97 % 1016,2 hPa 0,0 l/m² 0 min 0 min 0 W/m² 0,0 km/h (0 Bft) 95,65 %
16.01.2026 20:18 8,8 °C 7,8 °C 4,4 °C 97 % 1016,2 hPa 0,0 l/m² 0 min 0 min 0 W/m² 0,0 km/h (0 Bft) 98,28 %
16.01.2026 20:20 8,8 °C 7,8 °C 4,4 °C 97 % 1016,2 hPa 0,0 l/m² 0 min 0 min 0 W/m² 0,0 km/h (0 Bft) 95,65 %
16.01.2026 20:22 8,8 °C 7,2 °C 4,4 °C 97 % 1016,2 hPa 0,0 l/m² 0 min 0 min 0 W/m² 0,0 km/h (0 Bft) 97,87 %
16.01.2026 20:24 8,8 °C 7,2 °C 3,9 °C 97 % 1016,2 hPa 0,0 l/m² 0 min 0 min 0 W/m² 0,0 km/h (0 Bft) 94,59 %
16.01.2026 20:26 8,7 °C 7,2 °C 3,9 °C 97 % 1016,1 hPa 0,0 l/m² 0 min 0 min 0 W/m² 0,0 km/h (0 Bft) 97,87 %
16.01.2026 20:28 8,7 °C 7,2 °C 3,9 °C 97 % 1016,1 hPa 0,0 l/m² 0 min 0 min 0 W/m² 0,0 km/h (0 Bft) 97,83 %
16.01.2026 20:30 8,7 °C 7,2 °C 3,9 °C 97 % 1016,1 hPa 0,0 l/m² 0 min 0 min 0 W/m² 0,0 km/h (0 Bft) 93,62 %
16.01.2026 20:32 8,7 °C 7,2 °C 3,9 °C 97 % 1016,2 hPa 0,0 l/m² 0 min 0 min 0 W/m² 0,0 km/h (0 Bft) 98,15 %
16.01.2026 20:34 8,6 °C 7,2 °C 3,9 °C 97 % 1016,2 hPa 0,0 l/m² 0 min 0 min 0 W/m² 0,0 km/h (0 Bft) 93,75 %
16.01.2026 20:36 8,6 °C 7,2 °C 3,9 °C 97 % 1016,2 hPa 0,0 l/m² 0 min 0 min 0 W/m² 0,0 km/h (0 Bft) 97,73 %
16.01.2026 20:38 8,6 °C 7,2 °C 3,9 °C 97 % 1016,1 hPa 0,0 l/m² 0 min 0 min 0 W/m² 0,0 km/h (0 Bft) 98,08 %
16.01.2026 20:40 8,5 °C 7,2 °C 3,9 °C 97 % 1016,2 hPa 0,0 l/m² 0 min 0 min 0 W/m² 0,0 km/h (0 Bft) 100,00 %
16.01.2026 20:42 8,5 °C 7,2 °C 3,9 °C 97 % 1016,2 hPa 0,0 l/m² 0 min 0 min 0 W/m² 0,0 km/h (0 Bft) 100,00 %
16.01.2026 20:44 8,5 °C 7,2 °C 3,9 °C 97 % 1016,2 hPa 0,0 l/m² 0 min 0 min 0 W/m² 0,0 km/h (0 Bft) 100,00 %
16.01.2026 20:46 8,4 °C 7,2 °C 3,9 °C 97 % 1016,2 hPa 0,0 l/m² 0 min 0 min 0 W/m² 0,0 km/h (0 Bft) 93,75 %
16.01.2026 20:52 8,4 °C 7,2 °C 3,9 °C 97 % 1016,2 hPa 0,0 l/m² 0 min 0 min 0 W/m² 0,0 km/h (0 Bft) 98,65 %
16.01.2026 20:53 8,4 °C 7,2 °C 3,9 °C 97 % 1016,2 hPa 0,0 l/m² 0 min 0 min 0 W/m² 0,0 km/h (0 Bft) 95,83 %
16.01.2026 20:55 8,4 °C 7,2 °C 3,9 °C 97 % 1016,2 hPa 0,0 l/m² 0 min 0 min 0 W/m² 0,0 km/h (0 Bft) 100,00 %
16.01.2026 20:58 8,4 °C 7,2 °C 3,9 °C 97 % 1016,2 hPa 0,0 l/m² 0 min 0 min 0 W/m² 0,0 km/h (0 Bft) 95,83 %
16.01.2026 21:00 8,3 °C 7,2 °C 3,9 °C 97 % 1016,2 hPa 0,0 l/m² 0 min 0 min 0 W/m² 0,0 km/h (0 Bft) 100,00 %
16.01.2026 21:02 8,3 °C 7,2 °C 3,9 °C 97 % 1016,2 hPa 0,0 l/m² 0 min 0 min 0 W/m² 3,2 km/h (1 Bft) 89,13 %
16.01.2026 21:04 8,3 °C 7,2 °C 3,9 °C 97 % 1016,2 hPa 0,0 l/m² 0 min 0 min 0 W/m² 3,2 km/h (1 Bft) 97,83 %
16.01.2026 21:06 8,3 °C 7,2 °C 3,9 °C 97 % 1016,2 hPa 0,0 l/m² 0 min 0 min 0 W/m² 0,0 km/h (0 Bft) 100,00 %
16.01.2026 21:08 8,3 °C 7,2 °C 3,9 °C 97 % 1016,2 hPa 0,0 l/m² 0 min 0 min 0 W/m² 0,0 km/h (0 Bft) 100,00 %
16.01.2026 21:10 8,3 °C 7,2 °C 3,9 °C 97 % 1016,2 hPa 0,0 l/m² 0 min 0 min 0 W/m² 0,0 km/h (0 Bft) 100,00 %
16.01.2026 21:12 8,2 °C 7,2 °C 3,9 °C 97 % 1016,2 hPa 0,0 l/m² 0 min 0 min 0 W/m² 0,0 km/h (0 Bft) 97,83 %
16.01.2026 21:14 8,2 °C 7,2 °C 3,9 °C 97 % 1016,1 hPa 0,0 l/m² 0 min 0 min 0 W/m² 3,2 km/h (1 Bft) 100,00 %
16.01.2026 21:16 8,2 °C 7,2 °C 3,9 °C 97 % 1016,1 hPa 0,0 l/m² 0 min 0 min 0 W/m² 0,0 km/h (0 Bft) 95,65 %
16.01.2026 21:18 8,2 °C 7,2 °C 3,9 °C 97 % 1016,1 hPa 0,0 l/m² 0 min 0 min 0 W/m² 0,0 km/h (0 Bft) 100,00 %
16.01.2026 21:20 8,2 °C 7,2 °C 3,9 °C 97 % 1016,1 hPa 0,0 l/m² 0 min 0 min 0 W/m² 0,0 km/h (0 Bft) 100,00 %
16.01.2026 21:22 8,2 °C 6,7 °C 3,3 °C 97 % 1016,1 hPa 0,0 l/m² 0 min 0 min 0 W/m² 0,0 km/h (0 Bft) 100,00 %
16.01.2026 21:24 8,1 °C 6,7 °C 3,3 °C 97 % 1016,1 hPa 0,0 l/m² 0 min 0 min 0 W/m² 0,0 km/h (0 Bft) 100,00 %
16.01.2026 21:26 8,1 °C 6,7 °C 3,3 °C 97 % 1016,1 hPa 0,0 l/m² 0 min 0 min 0 W/m² 0,0 km/h (0 Bft) 100,00 %
16.01.2026 21:28 8,1 °C 6,7 °C 3,3 °C 97 % 1016,1 hPa 0,0 l/m² 0 min 0 min 0 W/m² 0,0 km/h (0 Bft) 97,83 %
16.01.2026 21:30 8,1 °C 6,7 °C 3,3 °C 97 % 1016,2 hPa 0,0 l/m² 0 min 0 min 0 W/m² 3,2 km/h (1 Bft) 97,87 %
16.01.2026 21:32 8,0 °C 6,7 °C 3,3 °C 97 % 1016,2 hPa 0,0 l/m² 0 min 0 min 0 W/m² 0,0 km/h (0 Bft) 95,74 %
16.01.2026 21:34 8,0 °C 6,7 °C 3,3 °C 97 % 1016,2 hPa 0,0 l/m² 0 min 0 min 0 W/m² 0,0 km/h (0 Bft) 97,87 %
16.01.2026 21:36 7,9 °C 6,7 °C 3,3 °C 97 % 1016,2 hPa 0,0 l/m² 0 min 0 min 0 W/m² 3,2 km/h (1 Bft) 97,87 %
16.01.2026 21:38 7,9 °C 6,7 °C 3,3 °C 97 % 1016,2 hPa 0,0 l/m² 0 min 0 min 0 W/m² 0,0 km/h (0 Bft) 95,65 %
16.01.2026 21:40 7,9 °C 7,2 °C 3,9 °C 97 % 1016,2 hPa 0,0 l/m² 0 min 0 min 0 W/m² 0,0 km/h (0 Bft) 95,74 %
16.01.2026 21:42 7,9 °C 7,2 °C 3,9 °C 97 % 1016,3 hPa 0,0 l/m² 0 min 0 min 0 W/m² 3,2 km/h (1 Bft) 95,74 %
16.01.2026 21:44 7,9 °C 7,2 °C 3,9 °C 97 % 1016,3 hPa 0,0 l/m² 0 min 0 min 0 W/m² 6,4 km/h (2 Bft) 97,87 %
16.01.2026 21:46 7,9 °C 7,2 °C 3,9 °C 97 % 1016,3 hPa 0,0 l/m² 0 min 0 min 0 W/m² 3,2 km/h (1 Bft) 95,74 %
16.01.2026 21:48 7,9 °C 7,2 °C 3,9 °C 97 % 1016,3 hPa 0,0 l/m² 0 min 0 min 0 W/m² 6,4 km/h (2 Bft) 97,87 %
16.01.2026 21:50 7,9 °C 7,2 °C 3,9 °C 97 % 1016,4 hPa 0,0 l/m² 0 min 0 min 0 W/m² 6,4 km/h (2 Bft) 97,83 %
16.01.2026 21:52 7,9 °C 7,2 °C 3,9 °C 97 % 1016,4 hPa 0,0 l/m² 0 min 0 min 0 W/m² 6,4 km/h (2 Bft) 97,87 %
16.01.2026 21:54 7,9 °C 7,2 °C 3,9 °C 97 % 1016,4 hPa 0,0 l/m² 0 min 0 min 0 W/m² 3,2 km/h (1 Bft) 97,87 %
16.01.2026 21:56 7,9 °C 7,2 °C 3,9 °C 97 % 1016,3 hPa 0,0 l/m² 0 min 0 min 0 W/m² 3,2 km/h (1 Bft) 95,74 %
16.01.2026 21:58 7,9 °C 7,2 °C 3,9 °C 97 % 1016,4 hPa 0,0 l/m² 0 min 0 min 0 W/m² 0,0 km/h (0 Bft) 96,30 %
16.01.2026 22:00 7,9 °C 7,2 °C 3,9 °C 97 % 1016,4 hPa 0,0 l/m² 0 min 0 min 0 W/m² 3,2 km/h (1 Bft) 97,50 %
16.01.2026 22:02 7,9 °C 7,2 °C 3,9 °C 97 % 1016,3 hPa 0,0 l/m² 0 min 0 min 0 W/m² 0,0 km/h (0 Bft) 97,83 %
16.01.2026 22:04 7,9 °C 7,2 °C 3,9 °C 97 % 1016,3 hPa 0,0 l/m² 0 min 0 min 0 W/m² 0,0 km/h (0 Bft) 96,49 %
16.01.2026 22:08 7,9 °C 7,2 °C 3,9 °C 97 % 1016,4 hPa 0,0 l/m² 0 min 0 min 0 W/m² 0,0 km/h (0 Bft) 96,47 %
16.01.2026 22:10 7,9 °C 6,7 °C 3,3 °C 97 % 1016,4 hPa 0,0 l/m² 0 min 0 min 0 W/m² 0,0 km/h (0 Bft) 97,87 %
16.01.2026 22:12 7,8 °C 6,7 °C 3,3 °C 97 % 1016,4 hPa 0,0 l/m² 0 min 0 min 0 W/m² 0,0 km/h (0 Bft) 95,74 %
16.01.2026 22:14 7,8 °C 6,7 °C 3,3 °C 97 % 1016,4 hPa 0,0 l/m² 0 min 0 min 0 W/m² 0,0 km/h (0 Bft) 97,83 %
16.01.2026 22:16 7,8 °C 6,7 °C 3,3 °C 97 % 1016,4 hPa 0,0 l/m² 0 min 0 min 0 W/m² 0,0 km/h (0 Bft) 95,74 %
16.01.2026 22:18 7,8 °C 6,7 °C 3,3 °C 97 % 1016,4 hPa 0,0 l/m² 0 min 0 min 0 W/m² 0,0 km/h (0 Bft) 94,44 %
16.01.2026 22:20 7,8 °C 6,7 °C 3,3 °C 97 % 1016,4 hPa 0,0 l/m² 0 min 0 min 0 W/m² 0,0 km/h (0 Bft) 97,92 %
16.01.2026 22:22 7,8 °C 6,7 °C 3,3 °C 97 % 1016,3 hPa 0,0 l/m² 0 min 0 min 0 W/m² 0,0 km/h (0 Bft) 97,83 %
16.01.2026 22:24 7,8 °C 6,7 °C 3,3 °C 97 % 1016,3 hPa 0,0 l/m² 0 min 0 min 0 W/m² 0,0 km/h (0 Bft) 91,67 %
16.01.2026 22:26 7,8 °C 6,7 °C 3,3 °C 97 % 1016,4 hPa 0,0 l/m² 0 min 0 min 0 W/m² 0,0 km/h (0 Bft) 97,87 %
16.01.2026 22:28 7,7 °C 6,1 °C 3,3 °C 97 % 1016,4 hPa 0,0 l/m² 0 min 0 min 0 W/m² 0,0 km/h (0 Bft) 95,56 %
16.01.2026 22:30 7,7 °C 6,1 °C 3,3 °C 97 % 1016,3 hPa 0,0 l/m² 0 min 0 min 0 W/m² 0,0 km/h (0 Bft) 94,74 %
16.01.2026 22:32 7,7 °C 6,1 °C 3,3 °C 97 % 1016,3 hPa 0,0 l/m² 0 min 0 min 0 W/m² 0,0 km/h (0 Bft) 96,36 %
16.01.2026 22:34 7,7 °C 6,7 °C 3,3 °C 97 % 1016,4 hPa 0,0 l/m² 0 min 0 min 0 W/m² 3,2 km/h (1 Bft) 97,56 %
16.01.2026 22:36 7,6 °C 6,7 °C 3,3 °C 97 % 1016,5 hPa 0,0 l/m² 0 min 0 min 0 W/m² 3,2 km/h (1 Bft) 95,74 %
16.01.2026 22:38 7,6 °C 6,7 °C 3,3 °C 97 % 1016,5 hPa 0,0 l/m² 0 min 0 min 0 W/m² 0,0 km/h (0 Bft) 100,00 %
16.01.2026 22:40 7,6 °C 6,7 °C 3,3 °C 97 % 1016,6 hPa 0,0 l/m² 0 min 0 min 0 W/m² 3,2 km/h (1 Bft) 98,21 %
16.01.2026 22:42 7,6 °C 6,7 °C 3,3 °C 97 % 1016,5 hPa 0,0 l/m² 0 min 0 min 0 W/m² 3,2 km/h (1 Bft) 100,00 %
16.01.2026 22:44 7,6 °C 6,7 °C 3,3 °C 97 % 1016,5 hPa 0,0 l/m² 0 min 0 min 0 W/m² 0,0 km/h (0 Bft) 100,00 %
16.01.2026 22:46 7,6 °C 6,7 °C 3,3 °C 97 % 1016,6 hPa 0,0 l/m² 0 min 0 min 0 W/m² 0,0 km/h (0 Bft) 100,00 %
16.01.2026 22:48 7,6 °C 6,7 °C 3,3 °C 97 % 1016,6 hPa 0,0 l/m² 0 min 0 min 0 W/m² 0,0 km/h (0 Bft) 100,00 %
16.01.2026 22:50 7,6 °C 6,7 °C 3,3 °C 97 % 1016,6 hPa 0,0 l/m² 0 min 0 min 0 W/m² 0,0 km/h (0 Bft) 97,44 %
16.01.2026 22:52 7,6 °C 6,7 °C 3,3 °C 97 % 1016,6 hPa 0,0 l/m² 0 min 0 min 0 W/m² 3,2 km/h (1 Bft) 97,87 %
16.01.2026 22:54 7,6 °C 6,7 °C 3,3 °C 97 % 1016,6 hPa 0,0 l/m² 0 min 0 min 0 W/m² 3,2 km/h (1 Bft) 97,78 %
16.01.2026 22:56 7,6 °C 6,7 °C 3,3 °C 97 % 1016,6 hPa 0,0 l/m² 0 min 0 min 0 W/m² 3,2 km/h (1 Bft) 98,21 %
16.01.2026 22:58 7,6 °C 6,7 °C 3,3 °C 97 % 1016,5 hPa 0,0 l/m² 0 min 0 min 0 W/m² 0,0 km/h (0 Bft) 97,92 %
16.01.2026 23:00 7,6 °C 6,7 °C 3,3 °C 97 % 1016,6 hPa 0,0 l/m² 0 min 0 min 0 W/m² 0,0 km/h (0 Bft) 97,83 %
16.01.2026 23:02 7,5 °C 6,7 °C 3,3 °C 97 % 1016,5 hPa 0,0 l/m² 0 min 0 min 0 W/m² 0,0 km/h (0 Bft) 97,44 %
16.01.2026 23:04 7,5 °C 6,7 °C 3,3 °C 97 % 1016,5 hPa 0,0 l/m² 0 min 0 min 0 W/m² 3,2 km/h (1 Bft) 95,83 %
16.01.2026 23:06 7,5 °C 6,7 °C 3,3 °C 97 % 1016,5 hPa 0,0 l/m² 0 min 0 min 0 W/m² 0,0 km/h (0 Bft) 98,15 %
16.01.2026 23:08 7,5 °C 6,7 °C 3,3 °C 97 % 1016,6 hPa 0,0 l/m² 0 min 0 min 0 W/m² 0,0 km/h (0 Bft) 93,48 %
16.01.2026 23:10 7,5 °C 6,7 °C 3,3 °C 97 % 1016,6 hPa 0,0 l/m² 0 min 0 min 0 W/m² 0,0 km/h (0 Bft) 97,56 %
16.01.2026 23:12 7,5 °C 6,7 °C 3,3 °C 97 % 1016,6 hPa 0,0 l/m² 0 min 0 min 0 W/m² 3,2 km/h (1 Bft) 91,11 %
16.01.2026 23:14 7,4 °C 6,7 °C 3,3 °C 97 % 1016,6 hPa 0,0 l/m² 0 min 0 min 0 W/m² 3,2 km/h (1 Bft) 98,21 %
16.01.2026 23:16 7,4 °C 6,7 °C 3,3 °C 97 % 1016,6 hPa 0,0 l/m² 0 min 0 min 0 W/m² 0,0 km/h (0 Bft) 94,87 %
16.01.2026 23:18 7,4 °C 6,7 °C 3,3 °C 97 % 1016,6 hPa 0,0 l/m² 0 min 0 min 0 W/m² 3,2 km/h (1 Bft) 93,62 %
16.01.2026 23:20 7,4 °C 6,7 °C 3,3 °C 97 % 1016,6 hPa 0,0 l/m² 0 min 0 min 0 W/m² 0,0 km/h (0 Bft) 95,35 %
16.01.2026 23:22 7,4 °C 6,7 °C 3,3 °C 97 % 1016,6 hPa 0,0 l/m² 0 min 0 min 0 W/m² 0,0 km/h (0 Bft) 92,16 %
16.01.2026 23:24 7,4 °C 6,7 °C 3,3 °C 97 % 1016,7 hPa 0,0 l/m² 0 min 0 min 0 W/m² 0,0 km/h (0 Bft) 91,30 %
16.01.2026 23:26 7,4 °C 6,7 °C 3,3 °C 97 % 1016,7 hPa 0,0 l/m² 0 min 0 min 0 W/m² 0,0 km/h (0 Bft) 95,65 %
16.01.2026 23:28 7,4 °C 6,7 °C 3,3 °C 97 % 1016,6 hPa 0,0 l/m² 0 min 0 min 0 W/m² 0,0 km/h (0 Bft) 94,64 %
16.01.2026 23:30 7,4 °C 6,7 °C 3,3 °C 97 % 1016,6 hPa 0,0 l/m² 0 min 0 min 0 W/m² 0,0 km/h (0 Bft) 94,87 %
16.01.2026 23:32 7,4 °C 6,7 °C 3,3 °C 97 % 1016,7 hPa 0,0 l/m² 0 min 0 min 0 W/m² 3,2 km/h (1 Bft) 93,48 %
16.01.2026 23:34 7,4 °C 6,7 °C 3,3 °C 97 % 1016,7 hPa 0,0 l/m² 0 min 0 min 0 W/m² 0,0 km/h (0 Bft) 94,55 %
16.01.2026 23:36 7,4 °C 6,7 °C 3,3 °C 97 % 1016,7 hPa 0,0 l/m² 0 min 0 min 0 W/m² 0,0 km/h (0 Bft) 92,31 %
16.01.2026 23:38 7,4 °C 6,7 °C 3,3 °C 97 % 1016,7 hPa 0,0 l/m² 0 min 0 min 0 W/m² 0,0 km/h (0 Bft) 91,49 %
16.01.2026 23:40 7,4 °C 6,7 °C 3,3 °C 97 % 1016,7 hPa 0,0 l/m² 0 min 0 min 0 W/m² 0,0 km/h (0 Bft) 92,73 %
16.01.2026 23:42 7,3 °C 6,7 °C 3,3 °C 97 % 1016,7 hPa 0,0 l/m² 0 min 0 min 0 W/m² 3,2 km/h (1 Bft) 97,44 %
16.01.2026 23:44 7,4 °C 6,7 °C 3,3 °C 97 % 1016,7 hPa 0,0 l/m² 0 min 0 min 0 W/m² 3,2 km/h (1 Bft) 97,87 %
16.01.2026 23:46 7,4 °C 6,7 °C 3,3 °C 97 % 1016,8 hPa 0,0 l/m² 0 min 2 min 0 W/m² 3,2 km/h (1 Bft) 93,33 %
16.01.2026 23:48 7,4 °C 6,7 °C 3,3 °C 97 % 1016,8 hPa 0,0 l/m² 0 min 0 min 0 W/m² 3,2 km/h (1 Bft) 96,43 %
16.01.2026 23:50 7,4 °C 6,7 °C 3,3 °C 97 % 1016,8 hPa 0,0 l/m² 0 min 0 min 0 W/m² 3,2 km/h (1 Bft) 100,00 %
16.01.2026 23:52 7,4 °C 6,7 °C 3,3 °C 98 % 1016,7 hPa 0,0 l/m² 0 min 0 min 0 W/m² 0,0 km/h (0 Bft) 97,87 %
16.01.2026 23:54 7,4 °C 6,7 °C 3,3 °C 98 % 1016,7 hPa 0,0 l/m² 0 min 0 min 0 W/m² 3,2 km/h (1 Bft) 100,00 %
16.01.2026 23:56 7,4 °C 6,7 °C 3,3 °C 98 % 1016,7 hPa 0,0 l/m² 0 min 0 min 0 W/m² 0,0 km/h (0 Bft) 51,16 %
16.01.2026 23:58 7,4 °C 6,7 °C 3,3 °C 98 % 1016,7 hPa 0,0 l/m² 0 min 0 min 0 W/m² 0,0 km/h (0 Bft) 100,00 %
_ Min-Zeit 23:42 22:28 21:22 05:52 00:52 - - - - 16:42 13:00
Minimum _ 7,3 °C 6,1 °C 3,3 °C 82 % 1006,9 hPa - - - - 0,0 km/h (0 Bft) 50,00 %
_ Max-Zeit 11:54 11:22 11:08 23:52 23:46 16:50 10:54 18:10 11:20 00:14 01:12
Maximum _ 11,1 °C 11,7 °C 6,7 °C 98 % 1016,8 hPa 0,5 l/m² 2 min 5 min 152 W/m² 41,8 km/h
S-SO (6 Bft)
100,00 %
Durchschnitt _ 9,8 °C 9,1 °C 5,2 °C 90 % 1012,5 hPa #2,6 l/m² #4 min. #1:07 h 56 W/m² 10,7 km/h (2 Bft) 96,85 %
© 2026 W. Hausmann